Time,TemperatureF,DewpointF,PressureIn,WindDirection,WindDirectionDegrees,WindSpeedMPH,WindSpeedGustMPH,Humidity,HourlyPrecipIn,Conditions,Clouds,dailyrainin,SoftwareType,DateUTC
2013-01-31 00:14:00,12.2,10.0,29.65,North,350,11.0,-999.0,90,-99.99,,,0.00,weatherlink.com 1.10,2013-01-31 06:14:00,
2013-01-31 00:15:00,12.2,9.8,29.66,North,350,7.0,17.0,90,0.00,,,0.00,Wunderground v.1.15,2013-01-31 06:15:00,
2013-01-31 00:16:00,12.2,9.8,29.66,North,350,7.0,17.0,90,0.00,,,0.00,Wunderground v.1.15,2013-01-31 06:16:00,
2013-01-31 00:21:00,12.2,9.8,29.66,North,350,6.0,17.0,90,0.00,,,0.00,Wunderground v.1.15,2013-01-31 06:21:00,
2013-01-31 00:23:00,12.2,9.8,29.66,North,350,6.0,17.0,90,0.00,,,0.00,Wunderground v.1.15,2013-01-31 06:23:00,
2013-01-31 00:24:00,12.2,9.8,29.66,North,350,6.0,17.0,90,0.00,,,0.00,Wunderground v.1.15,2013-01-31 06:24:00,
2013-01-31 00:26:00,12.2,9.8,29.66,North,350,6.0,6.0,90,0.00,,,0.00,Wunderground v.1.15,2013-01-31 06:26:00,
2013-01-31 00:29:00,12.2,9.8,29.66,North,350,5.0,17.0,90,0.00,,,0.00,Wunderground v.1.15,2013-01-31 06:29:00,
2013-01-31 00:30:00,12.2,9.8,29.66,North,350,5.0,17.0,90,0.00,,,0.00,Wunderground v.1.15,2013-01-31 06:30:00,
2013-01-31 00:32:00,12.1,9.7,29.66,North,350,5.0,17.0,90,0.00,,,0.00,Wunderground v.1.15,2013-01-31 06:32:00,
2013-01-31 00:36:00,12.1,9.7,29.66,North,350,5.0,5.0,90,0.00,,,0.00,Wunderground v.1.15,2013-01-31 06:36:00,
2013-01-31 00:37:00,12.1,9.7,29.67,North,350,5.0,17.0,90,0.00,,,0.00,Wunderground v.1.15,2013-01-31 06:37:00,
2013-01-31 00:38:00,12.1,9.7,29.67,North,350,6.0,17.0,90,0.00,,,0.00,Wunderground v.1.15,2013-01-31 06:38:00,
2013-01-31 00:43:00,12.0,9.6,29.67,North,350,5.0,17.0,90,0.00,,,0.00,Wunderground v.1.15,2013-01-31 06:43:00,
2013-01-31 00:44:00,12.0,9.6,29.67,North,350,5.0,17.0,90,0.00,,,0.00,Wunderground v.1.15,2013-01-31 06:44:00,
2013-01-31 00:48:00,12.0,9.6,29.67,North,350,5.0,17.0,90,0.00,,,0.00,Wunderground v.1.15,2013-01-31 06:48:00,
2013-01-31 00:49:00,12.0,9.9,29.67,North,350,6.0,17.0,91,0.00,,,0.00,Wunderground v.1.15,2013-01-31 06:49:00,
2013-01-31 00:53:00,11.9,9.8,29.67,North,350,5.0,17.0,91,0.00,,,0.00,Wunderground v.1.15,2013-01-31 06:53:00,
2013-01-31 00:54:00,11.9,9.8,29.67,North,350,5.0,17.0,91,0.00,,,0.00,Wunderground v.1.15,2013-01-31 06:54:00,
2013-01-31 00:55:00,11.9,9.8,29.67,North,350,5.0,17.0,91,0.00,,,0.00,Wunderground v.1.15,2013-01-31 06:55:00,
2013-01-31 01:00:00,11.8,9.7,29.67,North,350,5.0,9.0,91,0.00,,,0.00,Wunderground v.1.15,2013-01-31 07:00:00,
2013-01-31 01:01:00,11.8,9.4,29.67,North,350,5.0,9.0,90,0.00,,,0.00,Wunderground v.1.15,2013-01-31 07:01:00,
2013-01-31 01:04:00,11.7,9.0,29.67,North,350,4.0,-999.0,90,-99.99,,,0.00,weatherlink.com 1.10,2013-01-31 07:04:00,
2013-01-31 01:08:00,11.7,9.3,29.67,North,350,6.0,6.0,90,0.00,,,0.00,Wunderground v.1.15,2013-01-31 07:08:00,
2013-01-31 01:09:00,11.7,9.3,29.67,North,350,6.0,6.0,90,0.00,,,0.00,Wunderground v.1.15,2013-01-31 07:09:00,
2013-01-31 01:11:00,11.7,9.3,29.67,North,350,5.0,9.0,90,0.00,,,0.00,Wunderground v.1.15,2013-01-31 07:11:00,
2013-01-31 01:12:00,11.6,9.2,29.67,North,350,5.0,9.0,90,0.00,,,0.00,Wunderground v.1.15,2013-01-31 07:12:00,
2013-01-31 01:16:00,11.5,9.1,29.68,North,350,6.0,6.0,90,0.00,,,0.00,Wunderground v.1.15,2013-01-31 07:16:00,
2013-01-31 01:19:00,11.5,9.1,29.68,North,350,6.0,7.0,90,0.00,,,0.00,Wunderground v.1.15,2013-01-31 07:19:00,
2013-01-31 01:20:00,11.4,9.0,29.68,North,350,6.0,8.0,90,0.00,,,0.00,Wunderground v.1.15,2013-01-31 07:20:00,
2013-01-31 01:21:00,11.4,9.0,29.68,North,350,6.0,8.0,90,0.00,,,0.00,Wunderground v.1.15,2013-01-31 07:21:00,
2013-01-31 01:22:00,11.4,9.0,29.68,North,350,6.0,8.0,90,0.00,,,0.00,Wunderground v.1.15,2013-01-31 07:22:00,
2013-01-31 01:25:00,11.4,9.0,29.68,North,350,5.0,9.0,90,0.00,,,0.00,Wunderground v.1.15,2013-01-31 07:25:00,
2013-01-31 01:26:00,11.4,9.0,29.68,North,350,5.0,10.0,90,0.00,,,0.00,Wunderground v.1.15,2013-01-31 07:26:00,
2013-01-31 01:29:00,11.3,8.9,29.68,North,350,6.0,15.0,90,0.00,,,0.00,Wunderground v.1.15,2013-01-31 07:29:00,
2013-01-31 01:30:00,11.4,9.0,29.68,North,350,6.0,15.0,90,0.00,,,0.00,Wunderground v.1.15,2013-01-31 07:30:00,
2013-01-31 01:33:00,11.4,9.0,29.68,North,350,6.0,15.0,90,0.00,,,0.00,Wunderground v.1.15,2013-01-31 07:33:00,
2013-01-31 01:35:00,11.3,9.0,29.68,North,350,4.0,-999.0,90,-99.99,,,0.00,weatherlink.com 1.10,2013-01-31 07:35:00,
2013-01-31 01:40:00,11.3,8.9,29.69,North,350,5.0,15.0,90,0.00,,,0.00,Wunderground v.1.15,2013-01-31 07:40:00,
2013-01-31 01:41:00,11.3,8.9,29.69,North,350,5.0,15.0,90,0.00,,,0.00,Wunderground v.1.15,2013-01-31 07:41:00,
2013-01-31 01:46:00,11.2,8.8,29.69,North,350,6.0,15.0,90,0.00,,,0.00,Wunderground v.1.15,2013-01-31 07:46:00,
2013-01-31 01:47:00,11.2,8.8,29.69,North,350,6.0,15.0,90,0.00,,,0.00,Wunderground v.1.15,2013-01-31 07:47:00,
2013-01-31 01:48:00,11.2,8.8,29.69,North,350,6.0,15.0,90,0.00,,,0.00,Wunderground v.1.15,2013-01-31 07:48:00,
2013-01-31 01:49:00,11.3,9.0,29.70,North,350,2.0,-999.0,90,-99.99,,,0.00,weatherlink.com 1.10,2013-01-31 07:49:00,
2013-01-31 01:54:00,11.2,8.8,29.70,North,350,6.0,15.0,90,0.00,,,0.00,Wunderground v.1.15,2013-01-31 07:54:00,
2013-01-31 01:56:00,11.2,8.8,29.70,North,350,6.0,10.0,90,0.00,,,0.00,Wunderground v.1.15,2013-01-31 07:56:00,
2013-01-31 01:59:00,11.2,8.8,29.70,North,350,6.0,12.0,90,0.00,,,0.00,Wunderground v.1.15,2013-01-31 07:59:00,
2013-01-31 02:01:00,11.2,8.8,29.70,North,350,7.0,12.0,90,0.00,,,0.00,Wunderground v.1.15,2013-01-31 08:01:00,
2013-01-31 02:04:00,11.1,8.7,29.70,North,350,8.0,16.0,90,0.00,,,0.00,Wunderground v.1.15,2013-01-31 08:04:00,
2013-01-31 02:06:00,11.0,8.6,29.70,North,350,8.0,8.0,90,0.00,,,0.00,Wunderground v.1.15,2013-01-31 08:06:00,
2013-01-31 02:07:00,11.0,8.6,29.70,North,350,8.0,8.0,90,0.00,,,0.00,Wunderground v.1.15,2013-01-31 08:07:00,
2013-01-31 02:10:00,11.0,8.4,29.70,North,350,8.0,8.0,89,0.00,,,0.00,Wunderground v.1.15,2013-01-31 08:10:00,
2013-01-31 02:12:00,10.9,8.5,29.70,North,350,8.0,11.0,90,0.00,,,0.00,Wunderground v.1.15,2013-01-31 08:12:00,
2013-01-31 02:16:00,10.9,8.3,29.70,North,350,7.0,7.0,89,0.00,,,0.00,Wunderground v.1.15,2013-01-31 08:16:00,
2013-01-31 02:19:00,10.8,8.2,29.71,North,350,7.0,9.0,89,0.00,,,0.00,Wunderground v.1.15,2013-01-31 08:19:00,
2013-01-31 02:21:00,10.8,8.2,29.71,North,350,6.0,9.0,89,0.00,,,0.00,Wunderground v.1.15,2013-01-31 08:21:00,
2013-01-31 02:22:00,10.8,8.2,29.71,North,350,6.0,9.0,89,0.00,,,0.00,Wunderground v.1.15,2013-01-31 08:22:00,
2013-01-31 02:24:00,10.8,8.2,29.71,North,350,6.0,9.0,89,0.00,,,0.00,Wunderground v.1.15,2013-01-31 08:24:00,
2013-01-31 02:26:00,10.8,8.2,29.71,North,350,5.0,9.0,89,0.00,,,0.00,Wunderground v.1.15,2013-01-31 08:26:00,
2013-01-31 02:30:00,10.8,8.2,29.71,North,350,5.0,17.0,89,0.00,,,0.00,Wunderground v.1.15,2013-01-31 08:30:00,
2013-01-31 02:31:00,10.7,8.1,29.71,North,350,5.0,17.0,89,0.00,,,0.00,Wunderground v.1.15,2013-01-31 08:31:00,
2013-01-31 02:32:00,10.7,8.1,29.71,North,350,5.0,17.0,89,0.00,,,0.00,Wunderground v.1.15,2013-01-31 08:32:00,
2013-01-31 02:35:00,10.6,8.0,29.71,North,350,5.0,17.0,89,0.00,,,0.00,Wunderground v.1.15,2013-01-31 08:35:00,
2013-01-31 02:38:00,10.5,7.9,29.71,North,350,5.0,17.0,89,0.00,,,0.00,Wunderground v.1.15,2013-01-31 08:38:00,
2013-01-31 02:39:00,10.5,7.9,29.71,North,350,5.0,17.0,89,0.00,,,0.00,Wunderground v.1.15,2013-01-31 08:39:00,
2013-01-31 02:40:00,10.5,7.9,29.71,North,350,5.0,17.0,89,0.00,,,0.00,Wunderground v.1.15,2013-01-31 08:40:00,
2013-01-31 02:44:00,10.4,7.8,29.71,North,350,5.0,17.0,89,0.00,,,0.00,Wunderground v.1.15,2013-01-31 08:44:00,
2013-01-31 02:47:00,10.4,7.8,29.71,North,350,5.0,17.0,89,0.00,,,0.00,Wunderground v.1.15,2013-01-31 08:47:00,
2013-01-31 02:49:00,10.4,8.0,29.71,North,350,6.0,-999.0,89,-99.99,,,0.00,weatherlink.com 1.10,2013-01-31 08:49:00,
2013-01-31 02:53:00,10.4,7.8,29.71,North,350,5.0,17.0,89,0.00,,,0.00,Wunderground v.1.15,2013-01-31 08:53:00,
2013-01-31 02:54:00,10.4,7.8,29.71,North,350,6.0,17.0,89,0.00,,,0.00,Wunderground v.1.15,2013-01-31 08:54:00,
2013-01-31 02:57:00,10.4,7.8,29.71,North,350,6.0,8.0,89,0.00,,,0.00,Wunderground v.1.15,2013-01-31 08:57:00,
2013-01-31 02:59:00,10.5,7.9,29.71,North,350,5.0,8.0,89,0.00,,,0.00,Wunderground v.1.15,2013-01-31 08:59:00,
2013-01-31 03:03:00,10.5,7.9,29.71,North,350,5.0,11.0,89,0.00,,,0.00,Wunderground v.1.15,2013-01-31 09:03:00,
2013-01-31 03:04:00,10.5,7.9,29.71,North,350,5.0,11.0,89,0.00,,,0.00,Wunderground v.1.15,2013-01-31 09:04:00,
2013-01-31 03:06:00,10.5,7.9,29.71,North,350,5.0,5.0,89,0.00,,,0.00,Wunderground v.1.15,2013-01-31 09:06:00,
2013-01-31 03:09:00,10.4,7.8,29.71,North,350,4.0,10.0,89,0.00,,,0.00,Wunderground v.1.15,2013-01-31 09:09:00,
2013-01-31 03:10:00,10.4,7.8,29.71,North,350,5.0,10.0,89,0.00,,,0.00,Wunderground v.1.15,2013-01-31 09:10:00,
2013-01-31 03:12:00,10.4,7.8,29.71,North,350,5.0,10.0,89,0.00,,,0.00,Wunderground v.1.15,2013-01-31 09:12:00,
2013-01-31 03:14:00,10.4,7.8,29.71,North,350,4.0,10.0,89,0.00,,,0.00,Wunderground v.1.15,2013-01-31 09:14:00,
2013-01-31 03:16:00,10.4,7.8,29.71,North,350,4.0,4.0,89,0.00,,,0.00,Wunderground v.1.15,2013-01-31 09:16:00,
2013-01-31 03:17:00,10.4,7.8,29.71,North,350,4.0,4.0,89,0.00,,,0.00,Wunderground v.1.15,2013-01-31 09:17:00,
2013-01-31 03:20:00,10.4,8.0,29.71,North,350,5.0,-999.0,89,-99.99,,,0.00,weatherlink.com 1.10,2013-01-31 09:20:00,
2013-01-31 03:21:00,10.3,7.7,29.71,North,350,4.0,6.0,89,0.00,,,0.00,Wunderground v.1.15,2013-01-31 09:21:00,
2013-01-31 03:24:00,10.4,7.8,29.72,North,350,4.0,6.0,89,0.00,,,0.00,Wunderground v.1.15,2013-01-31 09:24:00,
2013-01-31 03:27:00,10.4,7.8,29.71,North,350,4.0,6.0,89,0.00,,,0.00,Wunderground v.1.15,2013-01-31 09:27:00,
2013-01-31 03:29:00,10.3,7.7,29.71,North,350,4.0,16.0,89,0.00,,,0.00,Wunderground v.1.15,2013-01-31 09:29:00,
2013-01-31 03:30:00,10.3,7.7,29.72,North,350,4.0,16.0,89,0.00,,,0.00,Wunderground v.1.15,2013-01-31 09:30:00,
2013-01-31 03:31:00,10.3,7.7,29.72,North,350,5.0,16.0,89,0.00,,,0.00,Wunderground v.1.15,2013-01-31 09:31:00,
2013-01-31 03:34:00,10.3,7.7,29.72,North,350,5.0,16.0,89,0.00,,,0.00,Wunderground v.1.15,2013-01-31 09:34:00,
2013-01-31 03:36:00,10.3,7.7,29.72,North,350,5.0,16.0,89,0.00,,,0.00,Wunderground v.1.15,2013-01-31 09:36:00,
2013-01-31 03:37:00,10.3,7.7,29.72,North,350,4.0,16.0,89,0.00,,,0.00,Wunderground v.1.15,2013-01-31 09:37:00,
2013-01-31 03:41:00,10.3,7.7,29.72,North,350,5.0,16.0,89,0.00,,,0.00,Wunderground v.1.15,2013-01-31 09:41:00,
2013-01-31 03:42:00,10.3,7.7,29.72,North,350,4.0,16.0,89,0.00,,,0.00,Wunderground v.1.15,2013-01-31 09:42:00,
2013-01-31 03:44:00,10.2,7.6,29.72,North,350,5.0,16.0,89,0.00,,,0.00,Wunderground v.1.15,2013-01-31 09:44:00,
2013-01-31 03:49:00,10.2,7.6,29.72,North,350,5.0,16.0,89,0.00,,,0.00,Wunderground v.1.15,2013-01-31 09:49:00,
2013-01-31 03:50:00,10.2,7.6,29.73,North,350,5.0,16.0,89,0.00,,,0.00,Wunderground v.1.15,2013-01-31 09:50:00,
2013-01-31 03:51:00,10.1,7.5,29.73,North,350,5.0,16.0,89,0.00,,,0.00,Wunderground v.1.15,2013-01-31 09:51:00,
2013-01-31 03:55:00,10.1,7.5,29.73,North,350,4.0,16.0,89,0.00,,,0.00,Wunderground v.1.15,2013-01-31 09:55:00,
2013-01-31 03:56:00,10.1,7.5,29.73,North,350,4.0,4.0,89,0.00,,,0.00,Wunderground v.1.15,2013-01-31 09:56:00,
2013-01-31 03:57:00,10.1,7.5,29.73,North,350,4.0,6.0,89,0.00,,,0.00,Wunderground v.1.15,2013-01-31 09:57:00,
2013-01-31 03:59:00,10.1,7.5,29.73,North,350,4.0,7.0,89,0.00,,,0.00,Wunderground v.1.15,2013-01-31 09:59:00,
2013-01-31 04:02:00,10.1,7.5,29.73,North,350,4.0,8.0,89,0.00,,,0.00,Wunderground v.1.15,2013-01-31 10:02:00,
2013-01-31 04:04:00,10.1,7.5,29.73,North,350,5.0,8.0,89,0.00,,,0.00,Wunderground v.1.15,2013-01-31 10:04:00,
2013-01-31 04:05:00,10.1,7.5,29.73,North,350,5.0,8.0,89,0.00,,,0.00,Wunderground v.1.15,2013-01-31 10:05:00,
2013-01-31 04:10:00,10.0,7.2,29.73,North,350,5.0,7.0,88,0.00,,,0.00,Wunderground v.1.15,2013-01-31 10:10:00,
2013-01-31 04:11:00,10.0,7.2,29.73,North,350,5.0,7.0,88,0.00,,,0.00,Wunderground v.1.15,2013-01-31 10:11:00,
2013-01-31 04:12:00,10.0,7.2,29.73,North,350,5.0,9.0,88,0.00,,,0.00,Wunderground v.1.15,2013-01-31 10:12:00,
2013-01-31 04:13:00,9.9,7.1,29.73,North,350,5.0,9.0,88,0.00,,,0.00,Wunderground v.1.15,2013-01-31 10:13:00,
2013-01-31 04:17:00,9.9,7.3,29.73,North,350,4.0,5.0,89,0.00,,,0.00,Wunderground v.1.15,2013-01-31 10:17:00,
2013-01-31 04:19:00,9.9,7.3,29.73,North,350,5.0,6.0,89,0.00,,,0.00,Wunderground v.1.15,2013-01-31 10:19:00,
2013-01-31 04:20:00,9.9,7.0,29.73,North,350,3.0,-999.0,89,-99.99,,,0.00,weatherlink.com 1.10,2013-01-31 10:20:00,
2013-01-31 04:21:00,9.9,7.3,29.73,North,350,5.0,9.0,89,0.00,,,0.00,Wunderground v.1.15,2013-01-31 10:21:00,
2013-01-31 04:25:00,9.8,7.0,29.73,North,350,6.0,9.0,88,0.00,,,0.00,Wunderground v.1.15,2013-01-31 10:25:00,
2013-01-31 04:26:00,9.8,7.0,29.73,North,350,6.0,6.0,88,0.00,,,0.00,Wunderground v.1.15,2013-01-31 10:26:00,
2013-01-31 04:31:00,9.8,7.2,29.73,North,350,5.0,13.0,89,0.00,,,0.00,Wunderground v.1.15,2013-01-31 10:31:00,
2013-01-31 04:32:00,9.8,7.2,29.73,North,350,5.0,13.0,89,0.00,,,0.00,Wunderground v.1.15,2013-01-31 10:32:00,
2013-01-31 04:33:00,9.7,7.1,29.73,North,350,5.0,13.0,89,0.00,,,0.00,Wunderground v.1.15,2013-01-31 10:33:00,
2013-01-31 04:34:00,9.7,7.0,29.73,North,350,4.0,-999.0,89,-99.99,,,0.00,weatherlink.com 1.10,2013-01-31 10:34:00,
2013-01-31 04:39:00,9.6,7.0,29.73,North,350,4.0,13.0,89,0.00,,,0.00,Wunderground v.1.15,2013-01-31 10:39:00,
2013-01-31 04:40:00,9.6,7.0,29.74,North,350,4.0,13.0,89,0.00,,,0.00,Wunderground v.1.15,2013-01-31 10:40:00,
2013-01-31 04:41:00,9.6,6.8,29.73,North,350,5.0,13.0,88,0.00,,,0.00,Wunderground v.1.15,2013-01-31 10:41:00,
2013-01-31 04:45:00,9.6,6.8,29.74,North,350,4.0,13.0,88,0.00,,,0.00,Wunderground v.1.15,2013-01-31 10:45:00,
2013-01-31 04:47:00,9.8,7.2,29.73,North,350,4.0,5.0,89,0.00,,,0.00,Wunderground v.1.15,2013-01-31 10:47:00,
2013-01-31 04:49:00,9.8,7.2,29.74,North,350,3.0,13.0,89,0.00,,,0.00,Wunderground v.1.15,2013-01-31 10:49:00,
2013-01-31 04:51:00,9.6,7.0,29.73,North,350,0.0,-999.0,89,-99.99,,,0.00,weatherlink.com 1.10,2013-01-31 10:51:00,
2013-01-31 04:53:00,9.6,7.0,29.74,North,350,3.0,13.0,89,0.00,,,0.00,Wunderground v.1.15,2013-01-31 10:53:00,
2013-01-31 04:56:00,9.6,6.8,29.74,North,350,3.0,3.0,88,0.00,,,0.00,Wunderground v.1.15,2013-01-31 10:56:00,
2013-01-31 04:57:00,9.6,6.8,29.74,North,350,3.0,3.0,88,0.00,,,0.00,Wunderground v.1.15,2013-01-31 10:57:00,
2013-01-31 04:59:00,9.5,6.9,29.74,North,350,4.0,4.0,89,0.00,,,0.00,Wunderground v.1.15,2013-01-31 10:59:00,
2013-01-31 05:01:00,9.4,6.6,29.74,North,350,4.0,4.0,88,0.00,,,0.00,Wunderground v.1.15,2013-01-31 11:01:00,
2013-01-31 05:02:00,9.4,6.6,29.74,North,350,4.0,5.0,88,0.00,,,0.00,Wunderground v.1.15,2013-01-31 11:02:00,
2013-01-31 05:04:00,9.4,6.6,29.74,North,350,3.0,5.0,88,0.00,,,0.00,Wunderground v.1.15,2013-01-31 11:04:00,
2013-01-31 05:07:00,9.5,6.9,29.74,North,350,3.0,3.0,89,0.00,,,0.00,Wunderground v.1.15,2013-01-31 11:07:00,
2013-01-31 05:08:00,9.5,6.9,29.74,North,350,3.0,5.0,89,0.00,,,0.00,Wunderground v.1.15,2013-01-31 11:08:00,
2013-01-31 05:09:00,9.5,6.9,29.74,North,350,3.0,7.0,89,0.00,,,0.00,Wunderground v.1.15,2013-01-31 11:09:00,
2013-01-31 05:11:00,9.4,6.8,29.74,North,350,3.0,7.0,89,0.00,,,0.00,Wunderground v.1.15,2013-01-31 11:11:00,
2013-01-31 05:14:00,9.3,6.5,29.74,North,350,3.0,7.0,88,0.00,,,0.00,Wunderground v.1.15,2013-01-31 11:14:00,
2013-01-31 05:16:00,9.3,6.5,29.74,North,350,4.0,7.0,88,0.00,,,0.00,Wunderground v.1.15,2013-01-31 11:16:00,
2013-01-31 05:19:00,9.2,6.4,29.74,North,350,3.0,7.0,88,0.00,,,0.00,Wunderground v.1.15,2013-01-31 11:19:00,
2013-01-31 05:20:00,9.1,6.0,29.74,North,350,0.0,-999.0,88,-99.99,,,0.00,weatherlink.com 1.10,2013-01-31 11:20:00,
2013-01-31 05:22:00,9.1,6.3,29.75,North,350,3.0,7.0,88,0.00,,,0.00,Wunderground v.1.15,2013-01-31 11:22:00,
2013-01-31 05:26:00,9.0,6.2,29.74,North,350,4.0,9.0,88,0.00,,,0.00,Wunderground v.1.15,2013-01-31 11:26:00,
2013-01-31 05:28:00,8.9,6.1,29.74,North,350,4.0,16.0,88,0.00,,,0.00,Wunderground v.1.15,2013-01-31 11:28:00,
2013-01-31 05:29:00,8.9,6.1,29.75,North,350,4.0,16.0,88,0.00,,,0.00,Wunderground v.1.15,2013-01-31 11:29:00,
2013-01-31 05:30:00,8.9,6.1,29.74,North,350,4.0,16.0,88,0.00,,,0.00,Wunderground v.1.15,2013-01-31 11:30:00,
2013-01-31 05:32:00,8.9,6.1,29.74,North,350,4.0,16.0,88,0.00,,,0.00,Wunderground v.1.15,2013-01-31 11:32:00,
2013-01-31 05:35:00,8.9,6.0,29.75,North,350,4.0,-999.0,88,-99.99,,,0.00,weatherlink.com 1.10,2013-01-31 11:35:00,
2013-01-31 05:38:00,8.8,6.0,29.75,North,350,4.0,16.0,88,0.00,,,0.00,Wunderground v.1.15,2013-01-31 11:38:00,
2013-01-31 05:39:00,8.8,6.0,29.75,North,350,3.0,16.0,88,0.00,,,0.00,Wunderground v.1.15,2013-01-31 11:39:00,
2013-01-31 05:42:00,8.8,6.0,29.75,North,350,4.0,16.0,88,0.00,,,0.00,Wunderground v.1.15,2013-01-31 11:42:00,
2013-01-31 05:44:00,8.7,5.9,29.75,North,350,4.0,16.0,88,0.00,,,0.00,Wunderground v.1.15,2013-01-31 11:44:00,
2013-01-31 05:45:00,8.7,5.9,29.75,North,350,4.0,16.0,88,0.00,,,0.00,Wunderground v.1.15,2013-01-31 11:45:00,
2013-01-31 05:48:00,8.7,5.9,29.75,North,350,4.0,16.0,88,0.00,,,0.00,Wunderground v.1.15,2013-01-31 11:48:00,
2013-01-31 05:50:00,8.7,6.1,29.75,North,350,5.0,16.0,89,0.00,,,0.00,Wunderground v.1.15,2013-01-31 11:50:00,
2013-01-31 05:51:00,8.7,6.1,29.75,North,350,5.0,16.0,89,0.00,,,0.00,Wunderground v.1.15,2013-01-31 11:51:00,
2013-01-31 05:54:00,8.7,6.1,29.75,North,350,4.0,16.0,89,0.00,,,0.00,Wunderground v.1.15,2013-01-31 11:54:00,
2013-01-31 05:56:00,8.7,5.9,29.75,North,350,4.0,4.0,88,0.00,,,0.00,Wunderground v.1.15,2013-01-31 11:56:00,
2013-01-31 05:57:00,8.7,5.9,29.75,North,350,4.0,5.0,88,0.00,,,0.00,Wunderground v.1.15,2013-01-31 11:57:00,
2013-01-31 06:02:00,8.7,6.1,29.75,North,350,5.0,8.0,89,0.00,,,0.00,Wunderground v.1.15,2013-01-31 12:02:00,
2013-01-31 06:03:00,8.7,6.1,29.75,North,350,5.0,8.0,89,0.00,,,0.00,Wunderground v.1.15,2013-01-31 12:03:00,
2013-01-31 06:04:00,8.7,6.1,29.75,North,350,5.0,8.0,89,0.00,,,0.00,Wunderground v.1.15,2013-01-31 12:04:00,
2013-01-31 06:05:00,8.7,6.1,29.75,North,350,5.0,8.0,89,0.00,,,0.00,Wunderground v.1.15,2013-01-31 12:05:00,
2013-01-31 06:10:00,8.7,6.1,29.75,North,350,5.0,6.0,89,0.00,,,0.00,Wunderground v.1.15,2013-01-31 12:10:00,
2013-01-31 06:11:00,8.7,6.1,29.75,North,350,5.0,6.0,89,0.00,,,0.00,Wunderground v.1.15,2013-01-31 12:11:00,
2013-01-31 06:12:00,8.7,6.1,29.75,North,350,5.0,6.0,89,0.00,,,0.00,Wunderground v.1.15,2013-01-31 12:12:00,
2013-01-31 06:16:00,8.7,6.1,29.76,North,350,5.0,5.0,89,0.00,,,0.00,Wunderground v.1.15,2013-01-31 12:16:00,
2013-01-31 06:19:00,8.7,6.1,29.76,North,350,5.0,5.0,89,0.00,,,0.00,Wunderground v.1.15,2013-01-31 12:19:00,
2013-01-31 06:23:00,8.6,6.0,29.76,North,350,5.0,6.0,89,0.00,,,0.00,Wunderground v.1.15,2013-01-31 12:23:00,
2013-01-31 06:24:00,8.6,6.0,29.76,North,350,5.0,8.0,89,0.00,,,0.00,Wunderground v.1.15,2013-01-31 12:24:00,
2013-01-31 06:25:00,8.6,6.0,29.76,North,350,5.0,9.0,89,0.00,,,0.00,Wunderground v.1.15,2013-01-31 12:25:00,
2013-01-31 06:26:00,8.6,6.0,29.76,North,350,5.0,5.0,89,0.00,,,0.00,Wunderground v.1.15,2013-01-31 12:26:00,
2013-01-31 06:29:00,8.6,6.0,29.77,North,350,5.0,15.0,89,0.00,,,0.00,Wunderground v.1.15,2013-01-31 12:29:00,
2013-01-31 06:31:00,8.6,6.0,29.77,North,350,5.0,15.0,89,0.00,,,0.00,Wunderground v.1.15,2013-01-31 12:31:00,
2013-01-31 06:33:00,8.6,6.0,29.77,North,350,5.0,15.0,89,0.00,,,0.00,Wunderground v.1.15,2013-01-31 12:33:00,
2013-01-31 06:34:00,8.6,6.0,29.77,North,350,6.0,15.0,89,0.00,,,0.00,Wunderground v.1.15,2013-01-31 12:34:00,
2013-01-31 06:36:00,8.6,6.0,29.77,North,350,5.0,5.0,89,0.00,,,0.00,Wunderground v.1.15,2013-01-31 12:36:00,
2013-01-31 06:38:00,8.5,5.9,29.77,North,350,5.0,15.0,89,0.00,,,0.00,Wunderground v.1.15,2013-01-31 12:38:00,
2013-01-31 06:41:00,8.5,6.2,29.77,North,350,6.0,15.0,90,0.00,,,0.00,Wunderground v.1.15,2013-01-31 12:41:00,
2013-01-31 06:44:00,8.5,5.9,29.77,North,350,6.0,15.0,89,0.00,,,0.00,Wunderground v.1.15,2013-01-31 12:44:00,
2013-01-31 06:48:00,8.4,5.8,29.78,North,350,6.0,15.0,89,0.00,,,0.00,Wunderground v.1.15,2013-01-31 12:48:00,
2013-01-31 06:50:00,8.3,6.0,29.78,North,350,3.0,-999.0,89,-99.99,,,0.00,weatherlink.com 1.10,2013-01-31 12:50:00,
2013-01-31 06:52:00,8.4,5.8,29.78,North,350,6.0,15.0,89,0.00,,,0.00,Wunderground v.1.15,2013-01-31 12:52:00,
2013-01-31 06:53:00,8.3,5.7,29.78,North,350,6.0,15.0,89,0.00,,,0.00,Wunderground v.1.15,2013-01-31 12:53:00,
2013-01-31 06:58:00,8.2,5.6,29.78,North,350,6.0,6.0,89,0.00,,,0.00,Wunderground v.1.15,2013-01-31 12:58:00,
2013-01-31 06:59:00,8.2,5.6,29.78,North,350,5.0,6.0,89,0.00,,,0.00,Wunderground v.1.15,2013-01-31 12:59:00,
2013-01-31 07:01:00,8.1,5.5,29.78,North,350,5.0,8.0,89,0.00,,,0.00,Wunderground v.1.15,2013-01-31 13:01:00,
2013-01-31 07:02:00,8.1,5.5,29.78,North,350,5.0,12.0,89,0.00,,,0.00,Wunderground v.1.15,2013-01-31 13:02:00,
2013-01-31 07:03:00,8.1,5.5,29.78,North,350,6.0,12.0,89,0.00,,,0.00,Wunderground v.1.15,2013-01-31 13:03:00,
2013-01-31 07:09:00,8.0,5.4,29.79,North,350,7.0,8.0,89,0.00,,,0.00,Wunderground v.1.15,2013-01-31 13:09:00,
2013-01-31 07:10:00,8.0,5.4,29.79,North,350,7.0,8.0,89,0.00,,,0.00,Wunderground v.1.15,2013-01-31 13:10:00,
2013-01-31 07:15:00,7.9,5.3,29.80,North,350,6.0,8.0,89,0.00,,,0.00,Wunderground v.1.15,2013-01-31 13:15:00,
2013-01-31 07:16:00,7.9,5.3,29.80,North,350,6.0,7.0,89,0.00,,,0.00,Wunderground v.1.15,2013-01-31 13:16:00,
2013-01-31 07:17:00,7.8,5.2,29.80,North,350,6.0,7.0,89,0.00,,,0.00,Wunderground v.1.15,2013-01-31 13:17:00,
2013-01-31 07:21:00,7.8,5.2,29.80,North,350,6.0,7.0,89,0.00,,,0.00,Wunderground v.1.15,2013-01-31 13:21:00,
2013-01-31 07:22:00,7.8,5.2,29.80,North,350,6.0,8.0,89,0.00,,,0.00,Wunderground v.1.15,2013-01-31 13:22:00,
2013-01-31 07:23:00,7.7,5.1,29.80,North,350,6.0,8.0,89,0.00,,,0.00,Wunderground v.1.15,2013-01-31 13:23:00,
2013-01-31 07:25:00,7.7,5.1,29.80,North,350,6.0,9.0,89,0.00,,,0.00,Wunderground v.1.15,2013-01-31 13:25:00,
2013-01-31 07:28:00,7.6,5.0,29.80,North,350,6.0,15.0,89,0.00,,,0.00,Wunderground v.1.15,2013-01-31 13:28:00,
2013-01-31 07:31:00,7.6,5.0,29.80,North,350,6.0,15.0,89,0.00,,,0.00,Wunderground v.1.15,2013-01-31 13:31:00,
2013-01-31 07:33:00,7.6,5.0,29.80,North,350,6.0,15.0,89,0.00,,,0.00,Wunderground v.1.15,2013-01-31 13:33:00,
2013-01-31 07:34:00,7.6,5.0,29.81,North,350,6.0,15.0,89,0.00,,,0.00,Wunderground v.1.15,2013-01-31 13:34:00,
2013-01-31 07:36:00,7.6,5.0,29.81,North,350,6.0,6.0,89,0.00,,,0.00,Wunderground v.1.15,2013-01-31 13:36:00,
2013-01-31 07:40:00,7.6,5.0,29.81,North,350,5.0,15.0,89,0.00,,,0.00,Wunderground v.1.15,2013-01-31 13:40:00,
2013-01-31 07:43:00,7.7,5.1,29.81,North,350,6.0,15.0,89,0.00,,,0.00,Wunderground v.1.15,2013-01-31 13:43:00,
2013-01-31 07:45:00,7.7,5.1,29.81,North,350,6.0,15.0,89,0.00,,,0.00,Wunderground v.1.15,2013-01-31 13:45:00,
2013-01-31 07:47:00,7.7,5.1,29.81,North,350,6.0,15.0,89,0.00,,,0.00,Wunderground v.1.15,2013-01-31 13:47:00,
2013-01-31 07:49:00,7.7,5.1,29.81,North,350,6.0,15.0,89,0.00,,,0.00,Wunderground v.1.15,2013-01-31 13:49:00,
2013-01-31 07:51:00,7.6,5.0,29.82,North,350,2.0,-999.0,88,-99.99,,,0.00,weatherlink.com 1.10,2013-01-31 13:51:00,
2013-01-31 07:53:00,7.7,4.9,29.82,North,350,5.0,15.0,88,0.00,,,0.00,Wunderground v.1.15,2013-01-31 13:53:00,
2013-01-31 07:54:00,7.7,5.1,29.82,North,350,5.0,15.0,89,0.00,,,0.00,Wunderground v.1.15,2013-01-31 13:54:00,
2013-01-31 08:00:00,7.6,4.8,29.82,North,350,6.0,9.0,88,0.00,,,0.00,Wunderground v.1.15,2013-01-31 14:00:00,
2013-01-31 08:01:00,7.6,4.8,29.82,North,350,6.0,9.0,88,0.00,,,0.00,Wunderground v.1.15,2013-01-31 14:01:00,
2013-01-31 08:02:00,7.6,4.8,29.82,North,350,7.0,9.0,88,0.00,,,0.00,Wunderground v.1.15,2013-01-31 14:02:00,
2013-01-31 08:03:00,7.6,4.8,29.82,North,350,6.0,9.0,88,0.00,,,0.00,Wunderground v.1.15,2013-01-31 14:03:00,
2013-01-31 08:06:00,7.5,5.0,29.82,North,350,5.0,-999.0,88,-99.99,,,0.00,weatherlink.com 1.10,2013-01-31 14:06:00,
2013-01-31 08:07:00,7.5,4.7,29.82,North,350,6.0,11.0,88,0.00,,,0.00,Wunderground v.1.15,2013-01-31 14:07:00,
2013-01-31 08:08:00,7.5,4.7,29.82,North,350,6.0,11.0,88,0.00,,,0.00,Wunderground v.1.15,2013-01-31 14:08:00,
2013-01-31 08:11:00,7.5,4.7,29.83,North,350,6.0,11.0,88,0.00,,,0.00,Wunderground v.1.15,2013-01-31 14:11:00,
2013-01-31 08:15:00,7.3,4.5,29.83,North,350,6.0,11.0,88,0.00,,,0.00,Wunderground v.1.15,2013-01-31 14:15:00,
2013-01-31 08:16:00,7.3,4.5,29.83,North,350,6.0,6.0,88,0.00,,,0.00,Wunderground v.1.15,2013-01-31 14:16:00,
2013-01-31 08:18:00,7.3,4.5,29.83,North,350,6.0,9.0,88,0.00,,,0.00,Wunderground v.1.15,2013-01-31 14:18:00,
2013-01-31 08:20:00,7.3,4.5,29.83,North,350,7.0,9.0,88,0.00,,,0.00,Wunderground v.1.15,2013-01-31 14:20:00,
2013-01-31 08:22:00,7.2,4.0,29.83,North,350,5.0,-999.0,88,-99.99,,,0.00,weatherlink.com 1.10,2013-01-31 14:22:00,
2013-01-31 08:23:00,7.2,4.4,29.83,North,350,7.0,9.0,88,0.00,,,0.00,Wunderground v.1.15,2013-01-31 14:23:00,
2013-01-31 08:24:00,7.3,4.5,29.83,North,350,7.0,9.0,88,0.00,,,0.00,Wunderground v.1.15,2013-01-31 14:24:00,
2013-01-31 08:30:00,7.5,4.7,29.83,North,350,6.0,16.0,88,0.00,,,0.00,Wunderground v.1.15,2013-01-31 14:30:00,
2013-01-31 08:31:00,7.5,4.7,29.83,North,350,6.0,16.0,88,0.00,,,0.00,Wunderground v.1.15,2013-01-31 14:31:00,
2013-01-31 08:33:00,7.5,4.7,29.84,North,350,6.0,16.0,88,0.00,,,0.00,Wunderground v.1.15,2013-01-31 14:33:00,
2013-01-31 08:34:00,7.5,4.7,29.84,North,350,6.0,16.0,88,0.00,,,0.00,Wunderground v.1.15,2013-01-31 14:34:00,
2013-01-31 08:36:00,7.5,5.0,29.84,North,350,6.0,-999.0,88,-99.99,,,0.00,weatherlink.com 1.10,2013-01-31 14:36:00,
2013-01-31 08:39:00,7.6,4.8,29.84,North,350,6.0,16.0,88,0.00,,,0.00,Wunderground v.1.15,2013-01-31 14:39:00,
2013-01-31 08:40:00,7.6,4.8,29.84,North,350,6.0,16.0,88,0.00,,,0.00,Wunderground v.1.15,2013-01-31 14:40:00,
2013-01-31 08:44:00,7.7,4.9,29.84,North,350,5.0,16.0,88,0.00,,,0.00,Wunderground v.1.15,2013-01-31 14:44:00,
2013-01-31 08:46:00,7.7,4.9,29.84,North,350,6.0,16.0,88,0.00,,,0.00,Wunderground v.1.15,2013-01-31 14:46:00,
2013-01-31 08:48:00,7.7,4.9,29.84,North,350,6.0,16.0,88,0.00,,,0.00,Wunderground v.1.15,2013-01-31 14:48:00,
2013-01-31 08:51:00,7.7,5.0,29.84,North,350,8.0,-999.0,88,-99.99,,,0.00,weatherlink.com 1.10,2013-01-31 14:51:00,
2013-01-31 08:53:00,7.8,5.0,29.84,North,350,7.0,16.0,88,0.00,,,0.00,Wunderground v.1.15,2013-01-31 14:53:00,
2013-01-31 08:54:00,7.8,5.0,29.85,North,350,7.0,16.0,88,0.00,,,0.00,Wunderground v.1.15,2013-01-31 14:54:00,
2013-01-31 08:56:00,7.8,5.0,29.84,North,350,7.0,7.0,88,0.00,,,0.00,Wunderground v.1.15,2013-01-31 14:56:00,
2013-01-31 09:01:00,8.0,5.2,29.84,North,350,6.0,7.0,88,0.00,,,0.00,Wunderground v.1.15,2013-01-31 15:01:00,
2013-01-31 09:02:00,8.0,5.2,29.84,North,350,6.0,7.0,88,0.00,,,0.00,Wunderground v.1.15,2013-01-31 15:02:00,
2013-01-31 09:04:00,8.1,5.3,29.84,North,350,6.0,7.0,88,0.00,,,0.00,Wunderground v.1.15,2013-01-31 15:04:00,
2013-01-31 09:05:00,8.1,5.3,29.85,North,350,5.0,7.0,88,0.00,,,0.00,Wunderground v.1.15,2013-01-31 15:05:00,
2013-01-31 09:09:00,8.1,5.3,29.85,North,350,5.0,7.0,88,0.00,,,0.00,Wunderground v.1.15,2013-01-31 15:09:00,
2013-01-31 09:10:00,8.0,5.2,29.85,North,350,5.0,7.0,88,0.00,,,0.00,Wunderground v.1.15,2013-01-31 15:10:00,
2013-01-31 09:12:00,8.0,5.2,29.85,North,350,6.0,7.0,88,0.00,,,0.00,Wunderground v.1.15,2013-01-31 15:12:00,
2013-01-31 09:15:00,8.0,5.2,29.85,North,350,7.0,8.0,88,0.00,,,0.00,Wunderground v.1.15,2013-01-31 15:15:00,
2013-01-31 09:16:00,8.0,5.2,29.85,North,350,7.0,7.0,88,0.00,,,0.00,Wunderground v.1.15,2013-01-31 15:16:00,
2013-01-31 09:19:00,7.9,5.1,29.85,North,350,7.0,11.0,88,0.00,,,0.00,Wunderground v.1.15,2013-01-31 15:19:00,
2013-01-31 09:21:00,7.9,5.1,29.85,North,350,7.0,11.0,88,0.00,,,0.00,Wunderground v.1.15,2013-01-31 15:21:00,
2013-01-31 09:23:00,7.9,5.1,29.85,North,350,7.0,11.0,88,0.00,,,0.00,Wunderground v.1.15,2013-01-31 15:23:00,
2013-01-31 09:25:00,8.0,5.2,29.85,North,350,6.0,11.0,88,0.00,,,0.00,Wunderground v.1.15,2013-01-31 15:25:00,
2013-01-31 09:26:00,8.0,5.2,29.85,North,350,6.0,6.0,88,0.00,,,0.00,Wunderground v.1.15,2013-01-31 15:26:00,
2013-01-31 09:31:00,8.0,4.9,29.86,North,350,6.0,15.0,87,0.00,,,0.00,Wunderground v.1.15,2013-01-31 15:31:00,
2013-01-31 09:33:00,8.1,5.3,29.86,North,350,6.0,15.0,88,0.00,,,0.00,Wunderground v.1.15,2013-01-31 15:33:00,
2013-01-31 09:35:00,8.2,5.4,29.86,North,350,6.0,15.0,88,0.00,,,0.00,Wunderground v.1.15,2013-01-31 15:35:00,
2013-01-31 09:36:00,8.3,5.5,29.86,North,350,6.0,6.0,88,0.00,,,0.00,Wunderground v.1.15,2013-01-31 15:36:00,
2013-01-31 09:37:00,8.2,5.0,29.86,North,350,3.0,-999.0,88,-99.99,,,0.00,weatherlink.com 1.10,2013-01-31 15:37:00,
2013-01-31 09:40:00,8.0,4.9,29.86,North,350,6.0,15.0,87,0.00,,,0.00,Wunderground v.1.15,2013-01-31 15:40:00,
2013-01-31 09:44:00,8.1,5.0,29.86,North,350,7.0,15.0,87,0.00,,,0.00,Wunderground v.1.15,2013-01-31 15:44:00,
2013-01-31 09:45:00,8.1,5.0,29.86,North,350,6.0,15.0,87,0.00,,,0.00,Wunderground v.1.15,2013-01-31 15:45:00,
2013-01-31 09:47:00,8.1,5.0,29.86,North,350,7.0,13.0,87,0.00,,,0.00,Wunderground v.1.15,2013-01-31 15:47:00,
2013-01-31 09:51:00,8.1,5.0,29.86,North,350,7.0,15.0,87,0.00,,,0.00,Wunderground v.1.15,2013-01-31 15:51:00,
2013-01-31 09:53:00,8.2,5.0,29.87,North,350,2.0,-999.0,87,-99.99,,,0.00,weatherlink.com 1.10,2013-01-31 15:53:00,
2013-01-31 09:56:00,8.1,5.0,29.87,North,350,6.0,7.0,87,0.00,,,0.00,Wunderground v.1.15,2013-01-31 15:56:00,
2013-01-31 09:57:00,8.1,4.8,29.87,North,350,7.0,7.0,86,0.00,,,0.00,Wunderground v.1.15,2013-01-31 15:57:00,
2013-01-31 09:58:00,8.0,4.7,29.87,North,350,7.0,7.0,86,0.00,,,0.00,Wunderground v.1.15,2013-01-31 15:58:00,
2013-01-31 10:02:00,7.7,4.4,29.87,North,350,7.0,13.0,86,0.00,,,0.00,Wunderground v.1.15,2013-01-31 16:02:00,
2013-01-31 10:03:00,7.7,4.4,29.87,North,350,7.0,13.0,86,0.00,,,0.00,Wunderground v.1.15,2013-01-31 16:03:00,
2013-01-31 10:06:00,7.7,4.6,29.87,North,350,7.0,7.0,87,0.00,,,0.00,Wunderground v.1.15,2013-01-31 16:06:00,
2013-01-31 10:07:00,7.8,4.7,29.87,North,350,7.0,7.0,87,0.00,,,0.00,Wunderground v.1.15,2013-01-31 16:07:00,
2013-01-31 10:10:00,7.9,4.8,29.87,North,350,7.0,13.0,87,0.00,,,0.00,Wunderground v.1.15,2013-01-31 16:10:00,
2013-01-31 10:12:00,7.9,4.8,29.87,North,350,7.0,13.0,87,0.00,,,0.00,Wunderground v.1.15,2013-01-31 16:12:00,
2013-01-31 10:13:00,7.9,4.8,29.88,North,350,7.0,13.0,87,0.00,,,0.00,Wunderground v.1.15,2013-01-31 16:13:00,
2013-01-31 10:15:00,7.9,4.8,29.88,North,350,7.0,13.0,87,0.00,,,0.00,Wunderground v.1.15,2013-01-31 16:15:00,
2013-01-31 10:18:00,8.0,4.9,29.88,North,350,6.0,7.0,87,0.00,,,0.00,Wunderground v.1.15,2013-01-31 16:18:00,
2013-01-31 10:20:00,8.2,5.1,29.88,North,350,6.0,7.0,87,0.00,,,0.00,Wunderground v.1.15,2013-01-31 16:20:00,
2013-01-31 10:23:00,8.5,5.0,29.88,North,350,4.0,-999.0,87,-99.99,,,0.00,weatherlink.com 1.10,2013-01-31 16:23:00,
2013-01-31 10:26:00,8.5,5.4,29.88,North,350,5.0,5.0,87,0.00,,,0.00,Wunderground v.1.15,2013-01-31 16:26:00,
2013-01-31 10:29:00,8.5,5.2,29.88,North,350,6.0,8.0,86,0.00,,,0.00,Wunderground v.1.15,2013-01-31 16:29:00,
2013-01-31 10:31:00,8.4,5.3,29.88,North,350,6.0,20.0,87,0.00,,,0.00,Wunderground v.1.15,2013-01-31 16:31:00,
2013-01-31 10:34:00,8.5,5.4,29.88,North,350,6.0,20.0,87,0.00,,,0.00,Wunderground v.1.15,2013-01-31 16:34:00,
2013-01-31 10:37:00,8.5,5.0,29.89,North,350,2.0,-999.0,87,-99.99,,,0.00,weatherlink.com 1.10,2013-01-31 16:37:00,
2013-01-31 10:44:00,8.7,5.6,29.89,North,350,6.0,20.0,87,0.00,,,0.00,Wunderground v.1.15,2013-01-31 16:44:00,
2013-01-31 10:47:00,8.5,5.4,29.89,North,350,6.0,20.0,87,0.00,,,0.00,Wunderground v.1.15,2013-01-31 16:47:00,
2013-01-31 10:48:00,8.5,5.4,29.89,North,350,7.0,20.0,87,0.00,,,0.00,Wunderground v.1.15,2013-01-31 16:48:00,
2013-01-31 10:53:00,8.4,5.0,29.89,North,350,5.0,-999.0,86,-99.99,,,0.00,weatherlink.com 1.10,2013-01-31 16:53:00,
2013-01-31 10:57:00,8.3,5.0,29.90,North,350,7.0,7.0,86,0.00,,,0.00,Wunderground v.1.15,2013-01-31 16:57:00,
2013-01-31 10:59:00,8.5,5.4,29.90,North,350,6.0,9.0,87,0.00,,,0.00,Wunderground v.1.15,2013-01-31 16:59:00,
2013-01-31 11:01:00,8.6,5.3,29.90,North,350,6.0,9.0,86,0.00,,,0.00,Wunderground v.1.15,2013-01-31 17:01:00,
2013-01-31 11:02:00,8.7,5.4,29.90,North,350,6.0,9.0,86,0.00,,,0.00,Wunderground v.1.15,2013-01-31 17:02:00,
2013-01-31 11:05:00,8.8,5.5,29.90,North,350,5.0,9.0,86,0.00,,,0.00,Wunderground v.1.15,2013-01-31 17:05:00,
2013-01-31 11:06:00,8.7,5.4,29.90,North,350,6.0,9.0,86,0.00,,,0.00,Wunderground v.1.15,2013-01-31 17:06:00,
2013-01-31 11:07:00,8.5,5.0,29.90,North,350,10.0,-999.0,85,-99.99,,,0.00,weatherlink.com 1.10,2013-01-31 17:07:00,
2013-01-31 11:12:00,8.7,5.6,29.90,North,350,6.0,9.0,87,0.00,,,0.00,Wunderground v.1.15,2013-01-31 17:12:00,
2013-01-31 11:14:00,8.8,5.7,29.90,North,350,5.0,9.0,87,0.00,,,0.00,Wunderground v.1.15,2013-01-31 17:14:00,
2013-01-31 11:17:00,8.9,5.8,29.90,North,350,4.0,5.0,87,0.00,,,0.00,Wunderground v.1.15,2013-01-31 17:17:00,
2013-01-31 11:20:00,9.3,6.2,29.90,North,350,4.0,8.0,87,0.00,,,0.00,Wunderground v.1.15,2013-01-31 17:20:00,
2013-01-31 11:22:00,9.2,6.0,29.90,North,350,7.0,-999.0,86,-99.99,,,0.00,weatherlink.com 1.10,2013-01-31 17:22:00,
2013-01-31 11:30:00,8.9,5.6,29.90,North,350,6.0,16.0,86,0.00,,,0.00,Wunderground v.1.15,2013-01-31 17:30:00,
2013-01-31 11:31:00,9.0,5.7,29.90,North,350,6.0,16.0,86,0.00,,,0.00,Wunderground v.1.15,2013-01-31 17:31:00,
2013-01-31 11:32:00,9.0,5.7,29.90,North,350,6.0,16.0,86,0.00,,,0.00,Wunderground v.1.15,2013-01-31 17:32:00,
2013-01-31 11:36:00,9.4,6.3,29.90,North,350,6.0,16.0,87,0.00,,,0.00,Wunderground v.1.15,2013-01-31 17:36:00,
2013-01-31 11:37:00,9.3,6.0,29.90,North,350,3.0,-999.0,86,-99.99,,,0.00,weatherlink.com 1.10,2013-01-31 17:37:00,
2013-01-31 11:42:00,9.0,5.4,29.90,North,350,6.0,16.0,85,0.00,,,0.00,Wunderground v.1.15,2013-01-31 17:42:00,
2013-01-31 11:43:00,9.1,5.8,29.90,North,350,6.0,16.0,86,0.00,,,0.00,Wunderground v.1.15,2013-01-31 17:43:00,
2013-01-31 11:44:00,9.1,5.8,29.90,North,350,6.0,16.0,86,0.00,,,0.00,Wunderground v.1.15,2013-01-31 17:44:00,
2013-01-31 11:45:00,9.1,5.8,29.90,North,350,7.0,16.0,86,0.00,,,0.00,Wunderground v.1.15,2013-01-31 17:45:00,
2013-01-31 11:48:00,8.9,5.3,29.90,North,350,7.0,16.0,85,0.00,,,0.00,Wunderground v.1.15,2013-01-31 17:48:00,
2013-01-31 11:50:00,9.2,5.9,29.90,North,350,7.0,16.0,86,0.00,,,0.00,Wunderground v.1.15,2013-01-31 17:50:00,
2013-01-31 11:51:00,9.3,6.0,29.90,North,350,7.0,16.0,86,0.00,,,0.00,Wunderground v.1.15,2013-01-31 17:51:00,
2013-01-31 11:53:00,9.5,6.0,29.90,North,350,12.0,-999.0,86,-99.99,,,0.00,weatherlink.com 1.10,2013-01-31 17:53:00,
2013-01-31 11:54:00,9.6,6.0,29.91,North,350,7.0,16.0,85,0.00,,,0.00,Wunderground v.1.15,2013-01-31 17:54:00,
2013-01-31 12:00:00,10.3,6.9,29.91,North,350,7.0,7.0,86,0.00,,,0.00,Wunderground v.1.15,2013-01-31 18:00:00,
2013-01-31 12:03:00,9.9,6.6,29.91,North,350,6.0,8.0,86,0.00,,,0.00,Wunderground v.1.15,2013-01-31 18:03:00,
2013-01-31 12:04:00,9.8,6.2,29.91,North,350,6.0,9.0,85,0.00,,,0.00,Wunderground v.1.15,2013-01-31 18:04:00,
2013-01-31 12:07:00,9.4,6.0,29.91,North,350,6.0,-999.0,85,-99.99,,,0.00,weatherlink.com 1.10,2013-01-31 18:07:00,
2013-01-31 12:11:00,9.7,6.1,29.91,North,350,6.0,15.0,85,0.00,,,0.00,Wunderground v.1.15,2013-01-31 18:11:00,
2013-01-31 12:12:00,9.9,6.6,29.91,North,350,6.0,15.0,86,0.00,,,0.00,Wunderground v.1.15,2013-01-31 18:12:00,
2013-01-31 12:13:00,10.0,6.6,29.91,North,350,6.0,15.0,86,0.00,,,0.00,Wunderground v.1.15,2013-01-31 18:13:00,
2013-01-31 12:14:00,10.1,6.7,29.91,North,350,6.0,15.0,86,0.00,,,0.00,Wunderground v.1.15,2013-01-31 18:14:00,
2013-01-31 12:18:00,10.1,6.5,29.91,North,350,6.0,8.0,85,0.00,,,0.00,Wunderground v.1.15,2013-01-31 18:18:00,
2013-01-31 12:20:00,10.4,6.8,29.91,North,350,6.0,8.0,85,0.00,,,0.00,Wunderground v.1.15,2013-01-31 18:20:00,
2013-01-31 12:21:00,10.3,6.7,29.91,North,350,6.0,10.0,85,0.00,,,0.00,Wunderground v.1.15,2013-01-31 18:21:00,
2013-01-31 12:24:00,10.2,6.6,29.91,North,350,7.0,10.0,85,0.00,,,0.00,Wunderground v.1.15,2013-01-31 18:24:00,
2013-01-31 12:27:00,10.0,6.4,29.91,North,350,6.0,7.0,85,0.00,,,0.00,Wunderground v.1.15,2013-01-31 18:27:00,
2013-01-31 12:28:00,10.0,6.1,29.91,North,350,7.0,17.0,84,0.00,,,0.00,Wunderground v.1.15,2013-01-31 18:28:00,
2013-01-31 12:29:00,10.0,6.4,29.91,North,350,6.0,17.0,85,0.00,,,0.00,Wunderground v.1.15,2013-01-31 18:29:00,
2013-01-31 12:32:00,10.5,7.1,29.91,North,350,5.0,17.0,86,0.00,,,0.00,Wunderground v.1.15,2013-01-31 18:32:00,
2013-01-31 12:34:00,10.3,6.7,29.91,North,350,6.0,17.0,85,0.00,,,0.00,Wunderground v.1.15,2013-01-31 18:34:00,
2013-01-31 12:37:00,10.2,6.6,29.92,North,350,5.0,17.0,85,0.00,,,0.00,Wunderground v.1.15,2013-01-31 18:37:00,
2013-01-31 12:39:00,10.1,6.2,29.92,North,350,5.0,17.0,84,0.00,,,0.00,Wunderground v.1.15,2013-01-31 18:39:00,
2013-01-31 12:40:00,10.1,7.0,29.92,North,350,2.0,-999.0,85,-99.99,,,0.00,weatherlink.com 1.10,2013-01-31 18:40:00,
2013-01-31 12:41:00,10.1,6.5,29.92,North,350,6.0,17.0,85,0.00,,,0.00,Wunderground v.1.15,2013-01-31 18:41:00,
2013-01-31 12:45:00,9.7,5.8,29.92,North,350,6.0,17.0,84,0.00,,,0.00,Wunderground v.1.15,2013-01-31 18:45:00,
2013-01-31 12:50:00,9.6,5.7,29.92,North,350,7.0,17.0,84,0.00,,,0.00,Wunderground v.1.15,2013-01-31 18:50:00,
2013-01-31 12:52:00,9.4,5.5,29.92,North,350,7.0,17.0,84,0.00,,,0.00,Wunderground v.1.15,2013-01-31 18:52:00,
2013-01-31 12:53:00,9.3,5.0,29.92,North,350,6.0,-999.0,84,-99.99,,,0.00,weatherlink.com 1.10,2013-01-31 18:53:00,
2013-01-31 12:58:00,9.6,5.7,29.92,North,350,8.0,8.0,84,0.00,,,0.00,Wunderground v.1.15,2013-01-31 18:58:00,
2013-01-31 12:59:00,9.7,5.8,29.92,North,350,7.0,13.0,84,0.00,,,0.00,Wunderground v.1.15,2013-01-31 18:59:00,
2013-01-31 13:00:00,9.8,5.9,29.92,North,350,7.0,13.0,84,0.00,,,0.00,Wunderground v.1.15,2013-01-31 19:00:00,
2013-01-31 13:04:00,9.9,5.8,29.92,North,350,8.0,13.0,83,0.00,,,0.00,Wunderground v.1.15,2013-01-31 19:04:00,
2013-01-31 13:05:00,9.8,5.4,29.92,North,350,8.0,13.0,82,0.00,,,0.00,Wunderground v.1.15,2013-01-31 19:05:00,
2013-01-31 13:09:00,9.7,5.6,29.92,North,350,9.0,13.0,83,0.00,,,0.00,Wunderground v.1.15,2013-01-31 19:09:00,
2013-01-31 13:10:00,9.6,5.2,29.92,North,350,9.0,13.0,82,0.00,,,0.00,Wunderground v.1.15,2013-01-31 19:10:00,
2013-01-31 13:16:00,9.6,6.0,29.92,North,350,8.0,8.0,85,0.00,,,0.00,Wunderground v.1.15,2013-01-31 19:16:00,
2013-01-31 13:17:00,9.7,6.1,29.92,North,350,7.0,8.0,85,0.00,,,0.00,Wunderground v.1.15,2013-01-31 19:17:00,
2013-01-31 13:21:00,9.6,5.7,29.92,North,350,6.0,8.0,84,0.00,,,0.00,Wunderground v.1.15,2013-01-31 19:21:00,
2013-01-31 13:23:00,9.7,5.8,29.92,North,350,5.0,10.0,84,0.00,,,0.00,Wunderground v.1.15,2013-01-31 19:23:00,
2013-01-31 13:24:00,9.8,6.2,29.92,North,350,6.0,10.0,85,0.00,,,0.00,Wunderground v.1.15,2013-01-31 19:24:00,
2013-01-31 13:26:00,9.6,5.7,29.93,North,350,6.0,10.0,84,0.00,,,0.00,Wunderground v.1.15,2013-01-31 19:26:00,
2013-01-31 13:27:00,9.4,5.5,29.93,North,350,6.0,16.0,84,0.00,,,0.00,Wunderground v.1.15,2013-01-31 19:27:00,
2013-01-31 13:31:00,9.4,5.5,29.93,North,350,6.0,16.0,84,0.00,,,0.00,Wunderground v.1.15,2013-01-31 19:31:00,
2013-01-31 13:32:00,9.4,5.5,29.93,North,350,6.0,16.0,84,0.00,,,0.00,Wunderground v.1.15,2013-01-31 19:32:00,
2013-01-31 13:33:00,9.4,5.5,29.93,North,350,6.0,16.0,84,0.00,,,0.00,Wunderground v.1.15,2013-01-31 19:33:00,
2013-01-31 13:39:00,9.6,5.7,29.93,North,350,6.0,16.0,84,0.00,,,0.00,Wunderground v.1.15,2013-01-31 19:39:00,
2013-01-31 13:40:00,9.5,6.0,29.93,North,350,3.0,-999.0,84,-99.99,,,0.00,weatherlink.com 1.10,2013-01-31 19:40:00,
2013-01-31 13:44:00,9.1,4.7,29.93,North,350,6.0,16.0,82,0.00,,,0.00,Wunderground v.1.15,2013-01-31 19:44:00,
2013-01-31 13:45:00,9.0,4.6,29.93,North,350,7.0,16.0,82,0.00,,,0.00,Wunderground v.1.15,2013-01-31 19:45:00,
2013-01-31 13:46:00,8.8,4.4,29.93,North,350,7.0,7.0,82,0.00,,,0.00,Wunderground v.1.15,2013-01-31 19:46:00,
2013-01-31 13:48:00,8.9,4.8,29.93,North,350,6.0,16.0,83,0.00,,,0.00,Wunderground v.1.15,2013-01-31 19:48:00,
2013-01-31 13:51:00,9.1,5.0,29.94,North,350,6.0,16.0,83,0.00,,,0.00,Wunderground v.1.15,2013-01-31 19:51:00,
2013-01-31 13:52:00,9.1,5.0,29.94,North,350,6.0,16.0,83,0.00,,,0.00,Wunderground v.1.15,2013-01-31 19:52:00,
2013-01-31 13:55:00,9.2,5.3,29.94,North,350,6.0,16.0,84,0.00,,,0.00,Wunderground v.1.15,2013-01-31 19:55:00,
2013-01-31 13:58:00,9.1,5.0,29.94,North,350,6.0,6.0,83,0.00,,,0.00,Wunderground v.1.15,2013-01-31 19:58:00,
2013-01-31 14:01:00,8.9,5.1,29.94,North,350,6.0,6.0,84,0.00,,,0.00,Wunderground v.1.15,2013-01-31 20:01:00,
2013-01-31 14:03:00,8.9,5.1,29.94,North,350,5.0,6.0,84,0.00,,,0.00,Wunderground v.1.15,2013-01-31 20:03:00,
2013-01-31 14:05:00,8.8,5.0,29.94,North,350,6.0,6.0,84,0.00,,,0.00,Wunderground v.1.15,2013-01-31 20:05:00,
2013-01-31 14:08:00,8.6,4.8,29.94,North,350,6.0,9.0,84,0.00,,,0.00,Wunderground v.1.15,2013-01-31 20:08:00,
2013-01-31 14:10:00,8.5,5.0,29.94,North,350,14.0,-999.0,84,-99.99,,,0.00,weatherlink.com 1.10,2013-01-31 20:10:00,
2013-01-31 14:11:00,8.4,4.3,29.94,North,350,6.0,11.0,83,0.00,,,0.00,Wunderground v.1.15,2013-01-31 20:11:00,
2013-01-31 14:16:00,8.2,4.4,29.94,North,350,7.0,7.0,84,0.00,,,0.00,Wunderground v.1.15,2013-01-31 20:16:00,
2013-01-31 14:17:00,8.1,4.3,29.94,North,350,7.0,7.0,84,0.00,,,0.00,Wunderground v.1.15,2013-01-31 20:17:00,
2013-01-31 14:18:00,8.2,4.4,29.94,North,350,7.0,8.0,84,0.00,,,0.00,Wunderground v.1.15,2013-01-31 20:18:00,
2013-01-31 14:22:00,8.2,4.4,29.95,North,350,6.0,11.0,84,0.00,,,0.00,Wunderground v.1.15,2013-01-31 20:22:00,
2013-01-31 14:24:00,8.2,4.4,29.95,North,350,6.0,11.0,84,0.00,,,0.00,Wunderground v.1.15,2013-01-31 20:24:00,
2013-01-31 14:25:00,8.3,4.5,29.95,North,350,6.0,11.0,84,0.00,,,0.00,Wunderground v.1.15,2013-01-31 20:25:00,
2013-01-31 14:26:00,8.3,4.5,29.95,North,350,6.0,6.0,84,0.00,,,0.00,Wunderground v.1.15,2013-01-31 20:26:00,
2013-01-31 14:32:00,8.4,4.6,29.95,North,350,7.0,18.0,84,0.00,,,0.00,Wunderground v.1.15,2013-01-31 20:32:00,
2013-01-31 14:35:00,8.4,4.3,29.95,North,350,7.0,18.0,83,0.00,,,0.00,Wunderground v.1.15,2013-01-31 20:35:00,
2013-01-31 14:37:00,8.4,4.3,29.95,North,350,7.0,18.0,83,0.00,,,0.00,Wunderground v.1.15,2013-01-31 20:37:00,
2013-01-31 14:38:00,8.2,4.1,29.95,North,350,7.0,18.0,83,0.00,,,0.00,Wunderground v.1.15,2013-01-31 20:38:00,
2013-01-31 14:39:00,8.2,4.1,29.96,North,350,7.0,18.0,83,0.00,,,0.00,Wunderground v.1.15,2013-01-31 20:39:00,
2013-01-31 14:41:00,8.1,4.0,29.96,North,350,7.0,18.0,83,0.00,,,0.00,Wunderground v.1.15,2013-01-31 20:41:00,
2013-01-31 14:43:00,8.2,4.1,29.96,North,350,7.0,18.0,83,0.00,,,0.00,Wunderground v.1.15,2013-01-31 20:43:00,
2013-01-31 14:46:00,8.5,4.7,29.96,North,350,7.0,7.0,84,0.00,,,0.00,Wunderground v.1.15,2013-01-31 20:46:00,
2013-01-31 14:47:00,8.4,4.6,29.96,North,350,7.0,18.0,84,0.00,,,0.00,Wunderground v.1.15,2013-01-31 20:47:00,
2013-01-31 14:50:00,8.5,4.9,29.96,North,350,6.0,18.0,85,0.00,,,0.00,Wunderground v.1.15,2013-01-31 20:50:00,
2013-01-31 14:52:00,8.3,4.2,29.96,North,350,7.0,19.0,83,0.00,,,0.00,Wunderground v.1.15,2013-01-31 20:52:00,
2013-01-31 14:53:00,8.2,4.1,29.96,North,350,6.0,19.0,83,0.00,,,0.00,Wunderground v.1.15,2013-01-31 20:53:00,
2013-01-31 14:55:00,8.1,4.0,29.96,North,350,7.0,19.0,83,0.00,,,0.00,Wunderground v.1.15,2013-01-31 20:55:00,
2013-01-31 14:57:00,8.0,3.6,29.96,North,350,7.0,9.0,82,0.00,,,0.00,Wunderground v.1.15,2013-01-31 20:57:00,
2013-01-31 14:58:00,8.0,3.6,29.97,North,350,7.0,9.0,82,0.00,,,0.00,Wunderground v.1.15,2013-01-31 20:58:00,
2013-01-31 15:03:00,7.9,3.8,29.97,North,350,7.0,12.0,83,0.00,,,0.00,Wunderground v.1.15,2013-01-31 21:03:00,
2013-01-31 15:04:00,7.8,3.7,29.97,North,350,7.0,12.0,83,0.00,,,0.00,Wunderground v.1.15,2013-01-31 21:04:00,
2013-01-31 15:08:00,7.8,3.7,29.97,North,350,6.0,16.0,83,0.00,,,0.00,Wunderground v.1.15,2013-01-31 21:08:00,
2013-01-31 15:09:00,7.8,4.0,29.97,North,350,6.0,-999.0,83,-99.99,,,0.00,weatherlink.com 1.10,2013-01-31 21:09:00,
2013-01-31 15:11:00,7.8,3.7,29.97,North,350,6.0,16.0,83,0.00,,,0.00,Wunderground v.1.15,2013-01-31 21:11:00,
2013-01-31 15:15:00,7.7,3.6,29.97,North,350,7.0,16.0,83,0.00,,,0.00,Wunderground v.1.15,2013-01-31 21:15:00,
2013-01-31 15:16:00,7.7,3.6,29.97,North,350,7.0,11.0,83,0.00,,,0.00,Wunderground v.1.15,2013-01-31 21:16:00,
2013-01-31 15:18:00,7.7,3.6,29.97,North,350,7.0,11.0,83,0.00,,,0.00,Wunderground v.1.15,2013-01-31 21:18:00,
2013-01-31 15:20:00,7.7,3.6,29.98,North,350,6.0,11.0,83,0.00,,,0.00,Wunderground v.1.15,2013-01-31 21:20:00,
2013-01-31 15:24:00,7.7,4.0,29.98,North,350,9.0,-999.0,83,-99.99,,,0.00,weatherlink.com 1.10,2013-01-31 21:24:00,
2013-01-31 15:26:00,7.8,4.0,29.98,North,350,6.0,6.0,84,0.00,,,0.00,Wunderground v.1.15,2013-01-31 21:26:00,
2013-01-31 15:28:00,7.9,4.1,29.98,North,350,6.0,23.0,84,0.00,,,0.00,Wunderground v.1.15,2013-01-31 21:28:00,
2013-01-31 15:30:00,7.8,4.0,29.98,North,350,6.0,23.0,84,0.00,,,0.00,Wunderground v.1.15,2013-01-31 21:30:00,
2013-01-31 15:33:00,7.9,4.1,29.98,North,350,5.0,23.0,84,0.00,,,0.00,Wunderground v.1.15,2013-01-31 21:33:00,
2013-01-31 15:35:00,7.9,4.1,29.98,North,350,5.0,23.0,84,0.00,,,0.00,Wunderground v.1.15,2013-01-31 21:35:00,
2013-01-31 15:37:00,7.8,4.0,29.99,North,350,6.0,23.0,84,0.00,,,0.00,Wunderground v.1.15,2013-01-31 21:37:00,
2013-01-31 15:39:00,7.6,4.0,29.99,North,350,3.0,-999.0,84,-99.99,,,0.00,weatherlink.com 1.10,2013-01-31 21:39:00,
2013-01-31 15:41:00,7.5,3.4,29.99,North,350,5.0,23.0,83,0.00,,,0.00,Wunderground v.1.15,2013-01-31 21:41:00,
2013-01-31 15:44:00,7.3,3.2,29.99,North,350,6.0,23.0,83,0.00,,,0.00,Wunderground v.1.15,2013-01-31 21:44:00,
2013-01-31 15:45:00,7.3,3.5,29.99,North,350,7.0,23.0,84,0.00,,,0.00,Wunderground v.1.15,2013-01-31 21:45:00,
2013-01-31 15:49:00,7.4,3.8,29.99,North,350,7.0,23.0,85,0.00,,,0.00,Wunderground v.1.15,2013-01-31 21:49:00,
2013-01-31 15:50:00,7.4,3.8,29.99,North,350,6.0,23.0,85,0.00,,,0.00,Wunderground v.1.15,2013-01-31 21:50:00,
2013-01-31 15:51:00,7.4,3.8,29.99,North,350,6.0,23.0,85,0.00,,,0.00,Wunderground v.1.15,2013-01-31 21:51:00,
2013-01-31 15:56:00,7.4,3.8,29.99,North,350,5.0,7.0,85,0.00,,,0.00,Wunderground v.1.15,2013-01-31 21:56:00,
2013-01-31 15:57:00,7.4,3.8,30.00,North,350,5.0,7.0,85,0.00,,,0.00,Wunderground v.1.15,2013-01-31 21:57:00,
2013-01-31 15:58:00,7.3,3.5,30.00,North,350,5.0,7.0,84,0.00,,,0.00,Wunderground v.1.15,2013-01-31 21:58:00,
2013-01-31 16:00:00,7.2,3.4,30.00,North,350,5.0,7.0,84,0.00,,,0.00,Wunderground v.1.15,2013-01-31 22:00:00,
2013-01-31 16:03:00,7.1,3.3,30.00,North,350,5.0,8.0,84,0.00,,,0.00,Wunderground v.1.15,2013-01-31 22:03:00,
2013-01-31 16:06:00,7.0,3.2,30.00,North,350,5.0,6.0,84,0.00,,,0.00,Wunderground v.1.15,2013-01-31 22:06:00,
2013-01-31 16:07:00,7.0,3.2,30.00,North,350,5.0,10.0,84,0.00,,,0.00,Wunderground v.1.15,2013-01-31 22:07:00,
2013-01-31 16:12:00,6.9,2.8,30.00,North,350,6.0,16.0,83,0.00,,,0.00,Wunderground v.1.15,2013-01-31 22:12:00,
2013-01-31 16:13:00,6.9,2.8,30.00,North,350,6.0,16.0,83,0.00,,,0.00,Wunderground v.1.15,2013-01-31 22:13:00,
2013-01-31 16:17:00,6.7,2.6,30.01,North,350,6.0,11.0,83,0.00,,,0.00,Wunderground v.1.15,2013-01-31 22:17:00,
2013-01-31 16:19:00,6.7,2.9,30.01,North,350,6.0,11.0,84,0.00,,,0.00,Wunderground v.1.15,2013-01-31 22:19:00,
2013-01-31 16:20:00,6.6,2.8,30.01,North,350,6.0,11.0,84,0.00,,,0.00,Wunderground v.1.15,2013-01-31 22:20:00,
2013-01-31 16:23:00,6.5,2.7,30.01,North,350,6.0,11.0,84,0.00,,,0.00,Wunderground v.1.15,2013-01-31 22:23:00,
2013-01-31 16:25:00,6.5,2.7,30.01,North,350,6.0,11.0,84,0.00,,,0.00,Wunderground v.1.15,2013-01-31 22:25:00,
2013-01-31 16:27:00,6.4,2.6,30.01,North,350,6.0,21.0,84,0.00,,,0.00,Wunderground v.1.15,2013-01-31 22:27:00,
2013-01-31 16:30:00,6.3,2.5,30.01,North,350,6.0,21.0,84,0.00,,,0.00,Wunderground v.1.15,2013-01-31 22:30:00,
2013-01-31 16:31:00,6.3,2.5,30.01,North,350,6.0,21.0,84,0.00,,,0.00,Wunderground v.1.15,2013-01-31 22:31:00,
2013-01-31 16:33:00,6.2,2.4,30.02,North,350,6.0,21.0,84,0.00,,,0.00,Wunderground v.1.15,2013-01-31 22:33:00,
2013-01-31 16:34:00,6.2,2.4,30.02,North,350,6.0,21.0,84,0.00,,,0.00,Wunderground v.1.15,2013-01-31 22:34:00,
2013-01-31 16:37:00,6.2,2.4,30.02,North,350,6.0,21.0,84,0.00,,,0.00,Wunderground v.1.15,2013-01-31 22:37:00,
2013-01-31 16:39:00,6.2,2.7,30.02,North,350,5.0,21.0,85,0.00,,,0.00,Wunderground v.1.15,2013-01-31 22:39:00,
2013-01-31 16:40:00,6.2,2.4,30.02,North,350,5.0,21.0,84,0.00,,,0.00,Wunderground v.1.15,2013-01-31 22:40:00,
2013-01-31 16:44:00,6.1,2.3,30.02,North,350,5.0,21.0,84,0.00,,,0.00,Wunderground v.1.15,2013-01-31 22:44:00,
2013-01-31 16:46:00,6.0,2.2,30.02,North,350,5.0,21.0,84,0.00,,,0.00,Wunderground v.1.15,2013-01-31 22:46:00,
2013-01-31 16:49:00,5.9,2.4,30.02,North,350,6.0,21.0,85,0.00,,,0.00,Wunderground v.1.15,2013-01-31 22:49:00,
2013-01-31 16:50:00,5.8,2.3,30.02,North,350,6.0,21.0,85,0.00,,,0.00,Wunderground v.1.15,2013-01-31 22:50:00,
2013-01-31 16:57:00,5.6,2.1,30.03,North,350,5.0,5.0,85,0.00,,,0.00,Wunderground v.1.15,2013-01-31 22:57:00,
2013-01-31 16:58:00,5.6,2.1,30.03,North,350,5.0,11.0,85,0.00,,,0.00,Wunderground v.1.15,2013-01-31 22:58:00,
2013-01-31 16:59:00,5.4,1.9,30.03,North,350,6.0,11.0,85,0.00,,,0.00,Wunderground v.1.15,2013-01-31 22:59:00,
2013-01-31 17:04:00,5.3,1.8,30.04,North,350,6.0,11.0,85,0.00,,,0.00,Wunderground v.1.15,2013-01-31 23:04:00,
2013-01-31 17:06:00,5.3,1.8,30.04,North,350,6.0,6.0,85,0.00,,,0.00,Wunderground v.1.15,2013-01-31 23:06:00,
2013-01-31 17:07:00,5.2,1.7,30.04,North,350,6.0,6.0,85,0.00,,,0.00,Wunderground v.1.15,2013-01-31 23:07:00,
2013-01-31 17:12:00,5.1,1.6,30.04,North,350,5.0,10.0,85,0.00,,,0.00,Wunderground v.1.15,2013-01-31 23:12:00,
2013-01-31 17:13:00,5.0,1.5,30.04,North,350,5.0,10.0,85,0.00,,,0.00,Wunderground v.1.15,2013-01-31 23:13:00,
2013-01-31 17:14:00,5.1,1.6,30.04,North,350,5.0,10.0,85,0.00,,,0.00,Wunderground v.1.15,2013-01-31 23:14:00,
2013-01-31 17:15:00,5.1,1.6,30.04,North,350,5.0,10.0,85,0.00,,,0.00,Wunderground v.1.15,2013-01-31 23:15:00,
2013-01-31 17:19:00,4.9,1.4,30.04,North,350,5.0,11.0,85,0.00,,,0.00,Wunderground v.1.15,2013-01-31 23:19:00,
2013-01-31 17:20:00,4.9,1.4,30.05,North,350,5.0,11.0,85,0.00,,,0.00,Wunderground v.1.15,2013-01-31 23:20:00,
2013-01-31 17:21:00,4.9,1.4,30.05,North,350,5.0,11.0,85,0.00,,,0.00,Wunderground v.1.15,2013-01-31 23:21:00,
2013-01-31 17:25:00,4.7,1.2,30.05,North,350,5.0,11.0,85,0.00,,,0.00,Wunderground v.1.15,2013-01-31 23:25:00,
2013-01-31 17:26:00,4.7,1.0,30.05,North,350,5.0,-999.0,85,-99.99,,,0.00,weatherlink.com 1.10,2013-01-31 23:26:00,
2013-01-31 17:31:00,4.6,1.1,30.05,North,350,5.0,16.0,85,0.00,,,0.00,Wunderground v.1.15,2013-01-31 23:31:00,
2013-01-31 17:32:00,4.6,1.3,30.05,North,350,5.0,16.0,86,0.00,,,0.00,Wunderground v.1.15,2013-01-31 23:32:00,
2013-01-31 17:37:00,4.6,1.3,30.06,North,350,5.0,16.0,86,0.00,,,0.00,Wunderground v.1.15,2013-01-31 23:37:00,
2013-01-31 17:38:00,4.5,1.2,30.06,North,350,5.0,16.0,86,0.00,,,0.00,Wunderground v.1.15,2013-01-31 23:38:00,
2013-01-31 17:39:00,4.5,1.2,30.06,North,350,5.0,16.0,86,0.00,,,0.00,Wunderground v.1.15,2013-01-31 23:39:00,
2013-01-31 17:40:00,4.6,1.0,30.06,North,350,9.0,-999.0,86,-99.99,,,0.00,weatherlink.com 1.10,2013-01-31 23:40:00,
2013-01-31 17:45:00,4.6,1.3,30.06,North,350,6.0,16.0,86,0.00,,,0.00,Wunderground v.1.15,2013-01-31 23:45:00,
2013-01-31 17:47:00,4.5,1.2,30.06,North,350,5.0,16.0,86,0.00,,,0.00,Wunderground v.1.15,2013-01-31 23:47:00,
2013-01-31 17:48:00,4.5,1.2,30.06,North,350,5.0,16.0,86,0.00,,,0.00,Wunderground v.1.15,2013-01-31 23:48:00,
2013-01-31 17:52:00,4.4,1.1,30.06,North,350,4.0,16.0,86,0.00,,,0.00,Wunderground v.1.15,2013-01-31 23:52:00,
2013-01-31 17:54:00,4.3,1.0,30.07,North,350,4.0,16.0,86,0.00,,,0.00,Wunderground v.1.15,2013-01-31 23:54:00,
2013-01-31 17:56:00,4.3,1.0,30.07,North,350,4.0,-999.0,86,-99.99,,,0.00,weatherlink.com 1.10,2013-01-31 23:56:00,
2013-01-31 17:58:00,4.2,0.9,30.07,North,350,5.0,5.0,86,0.00,,,0.00,Wunderground v.1.15,2013-01-31 23:58:00,
2013-01-31 18:00:00,4.1,0.8,30.07,North,350,5.0,7.0,86,0.00,,,0.00,Wunderground v.1.15,2013-02-01 00:00:00,
2013-01-31 18:01:00,4.2,0.9,30.07,North,350,4.0,7.0,86,0.00,,,0.00,Wunderground v.1.15,2013-02-01 00:01:00,
2013-01-31 18:02:00,4.2,0.9,30.07,North,350,4.0,7.0,86,0.00,,,0.00,Wunderground v.1.15,2013-02-01 00:02:00,
2013-01-31 18:05:00,4.1,0.8,30.07,North,350,4.0,7.0,86,0.00,,,0.00,Wunderground v.1.15,2013-02-01 00:05:00,
2013-01-31 18:06:00,4.0,0.7,30.07,North,350,4.0,5.0,86,0.00,,,0.00,Wunderground v.1.15,2013-02-01 00:06:00,
2013-01-31 18:08:00,4.0,0.7,30.07,North,350,4.0,6.0,86,0.00,,,0.00,Wunderground v.1.15,2013-02-01 00:08:00,
2013-01-31 18:10:00,4.0,1.0,30.07,North,350,2.0,-999.0,86,-99.99,,,0.00,weatherlink.com 1.10,2013-02-01 00:10:00,
2013-01-31 18:15:00,4.0,0.5,30.08,North,350,5.0,12.0,85,0.00,,,0.00,Wunderground v.1.15,2013-02-01 00:15:00,
2013-01-31 18:18:00,4.0,0.5,30.08,North,350,5.0,7.0,85,0.00,,,0.00,Wunderground v.1.15,2013-02-01 00:18:00,
2013-01-31 18:20:00,3.8,0.3,30.08,North,350,5.0,7.0,85,0.00,,,0.00,Wunderground v.1.15,2013-02-01 00:20:00,
2013-01-31 18:22:00,3.8,0.3,30.08,North,350,6.0,7.0,85,0.00,,,0.00,Wunderground v.1.15,2013-02-01 00:22:00,
2013-01-31 18:25:00,3.8,0.0,30.08,North,350,4.0,-999.0,85,-99.99,,,0.00,weatherlink.com 1.10,2013-02-01 00:25:00,
2013-01-31 18:26:00,3.8,0.3,30.09,North,350,5.0,6.0,85,0.00,,,0.00,Wunderground v.1.15,2013-02-01 00:26:00,
2013-01-31 18:28:00,3.7,0.2,30.08,North,350,6.0,15.0,85,0.00,,,0.00,Wunderground v.1.15,2013-02-01 00:28:00,
2013-01-31 18:29:00,3.7,0.2,30.09,North,350,6.0,15.0,85,0.00,,,0.00,Wunderground v.1.15,2013-02-01 00:29:00,
2013-01-31 18:35:00,3.6,0.1,30.09,North,350,6.0,15.0,85,0.00,,,0.00,Wunderground v.1.15,2013-02-01 00:35:00,
2013-01-31 18:36:00,3.5,0.0,30.09,North,350,6.0,6.0,85,0.00,,,0.00,Wunderground v.1.15,2013-02-01 00:36:00,
2013-01-31 18:39:00,3.5,0.0,30.09,North,350,5.0,15.0,85,0.00,,,0.00,Wunderground v.1.15,2013-02-01 00:39:00,
2013-01-31 18:41:00,3.4,-0.1,30.09,North,350,6.0,15.0,85,0.00,,,0.00,Wunderground v.1.15,2013-02-01 00:41:00,
2013-01-31 18:42:00,3.4,-0.1,30.09,North,350,6.0,15.0,85,0.00,,,0.00,Wunderground v.1.15,2013-02-01 00:42:00,
2013-01-31 18:43:00,3.3,-0.2,30.09,North,350,6.0,15.0,85,0.00,,,0.00,Wunderground v.1.15,2013-02-01 00:43:00,
2013-01-31 18:49:00,3.1,-0.4,30.10,North,350,6.0,15.0,85,0.00,,,0.00,Wunderground v.1.15,2013-02-01 00:49:00,
2013-01-31 18:51:00,3.0,-0.5,30.10,North,350,6.0,15.0,85,0.00,,,0.00,Wunderground v.1.15,2013-02-01 00:51:00,
2013-01-31 18:54:00,2.9,-0.6,30.10,North,350,6.0,15.0,85,0.00,,,0.00,Wunderground v.1.15,2013-02-01 00:54:00,
2013-01-31 18:57:00,2.9,-0.6,30.10,North,350,6.0,10.0,85,0.00,,,0.00,Wunderground v.1.15,2013-02-01 00:57:00,
2013-01-31 19:00:00,2.8,-0.7,30.10,North,350,5.0,10.0,85,0.00,,,0.00,Wunderground v.1.15,2013-02-01 01:00:00,
2013-01-31 19:02:00,2.7,-0.8,30.10,North,350,5.0,10.0,85,0.00,,,0.00,Wunderground v.1.15,2013-02-01 01:02:00,
2013-01-31 19:04:00,2.7,-1.0,30.10,North,350,5.0,10.0,84,0.00,,,0.00,Wunderground v.1.15,2013-02-01 01:04:00,
2013-01-31 19:08:00,2.6,-1.1,30.10,North,350,6.0,6.0,84,0.00,,,0.00,Wunderground v.1.15,2013-02-01 01:08:00,
2013-01-31 19:09:00,2.6,-1.1,30.10,North,350,6.0,6.0,84,0.00,,,0.00,Wunderground v.1.15,2013-02-01 01:09:00,
2013-01-31 19:14:00,2.5,-1.2,30.11,North,350,7.0,10.0,84,0.00,,,0.00,Wunderground v.1.15,2013-02-01 01:14:00,
2013-01-31 19:15:00,2.4,-1.3,30.11,North,350,6.0,10.0,84,0.00,,,0.00,Wunderground v.1.15,2013-02-01 01:15:00,
2013-01-31 19:19:00,2.3,-1.4,30.11,North,350,6.0,6.0,84,0.00,,,0.00,Wunderground v.1.15,2013-02-01 01:19:00,
2013-01-31 19:21:00,2.2,-1.5,30.11,North,350,6.0,6.0,84,0.00,,,0.00,Wunderground v.1.15,2013-02-01 01:21:00,
2013-01-31 19:22:00,2.2,-1.5,30.11,North,350,5.0,6.0,84,0.00,,,0.00,Wunderground v.1.15,2013-02-01 01:22:00,
2013-01-31 19:23:00,2.2,-1.3,30.11,North,350,5.0,6.0,85,0.00,,,0.00,Wunderground v.1.15,2013-02-01 01:23:00,
2013-01-31 19:25:00,2.1,-1.6,30.11,North,350,5.0,10.0,84,0.00,,,0.00,Wunderground v.1.15,2013-02-01 01:25:00,
2013-01-31 19:26:00,2.0,-2.0,30.11,North,350,6.0,-999.0,84,-99.99,,,0.00,weatherlink.com 1.10,2013-02-01 01:26:00,
2013-01-31 19:29:00,2.0,-1.7,30.12,North,350,6.0,16.0,84,0.00,,,0.00,Wunderground v.1.15,2013-02-01 01:29:00,
2013-01-31 19:30:00,2.0,-1.7,30.12,North,350,6.0,16.0,84,0.00,,,0.00,Wunderground v.1.15,2013-02-01 01:30:00,
2013-01-31 19:34:00,1.9,-1.8,30.12,North,350,7.0,16.0,84,0.00,,,0.00,Wunderground v.1.15,2013-02-01 01:34:00,
2013-01-31 19:36:00,1.9,-1.8,30.12,North,350,7.0,16.0,84,0.00,,,0.00,Wunderground v.1.15,2013-02-01 01:36:00,
2013-01-31 19:41:00,1.9,-2.0,30.12,North,350,4.0,-999.0,84,-99.99,,,0.00,weatherlink.com 1.10,2013-02-01 01:41:00,
2013-01-31 19:42:00,1.9,-1.8,30.12,North,350,6.0,16.0,84,0.00,,,0.00,Wunderground v.1.15,2013-02-01 01:42:00,
2013-01-31 19:46:00,1.9,-1.8,30.12,North,350,6.0,16.0,84,0.00,,,0.00,Wunderground v.1.15,2013-02-01 01:46:00,
2013-01-31 19:48:00,1.9,-1.8,30.13,North,350,6.0,16.0,84,0.00,,,0.00,Wunderground v.1.15,2013-02-01 01:48:00,
2013-01-31 19:49:00,1.8,-1.9,30.13,North,350,6.0,16.0,84,0.00,,,0.00,Wunderground v.1.15,2013-02-01 01:49:00,
2013-01-31 19:55:00,1.7,-2.0,30.13,North,350,6.0,16.0,84,0.00,,,0.00,Wunderground v.1.15,2013-02-01 01:55:00,
2013-01-31 19:56:00,1.7,-2.0,30.13,North,350,10.0,-999.0,84,-99.99,,,0.00,weatherlink.com 1.10,2013-02-01 01:56:00,
2013-01-31 19:58:00,1.6,-2.1,30.13,North,350,6.0,7.0,84,0.00,,,0.00,Wunderground v.1.15,2013-02-01 01:58:00,
2013-01-31 20:00:00,1.6,-2.1,30.13,North,350,5.0,7.0,84,0.00,,,0.00,Wunderground v.1.15,2013-02-01 02:00:00,
2013-01-31 20:03:00,1.5,-2.0,30.13,North,350,5.0,7.0,85,0.00,,,0.00,Wunderground v.1.15,2013-02-01 02:03:00,
2013-01-31 20:04:00,1.5,-2.2,30.13,North,350,5.0,8.0,84,0.00,,,0.00,Wunderground v.1.15,2013-02-01 02:04:00,
2013-01-31 20:08:00,1.5,-2.0,30.13,North,350,5.0,8.0,85,0.00,,,0.00,Wunderground v.1.15,2013-02-01 02:08:00,
2013-01-31 20:09:00,1.5,-2.0,30.13,North,350,5.0,8.0,85,0.00,,,0.00,Wunderground v.1.15,2013-02-01 02:09:00,
2013-01-31 20:12:00,1.4,-2.1,30.14,North,350,5.0,8.0,85,0.00,,,0.00,Wunderground v.1.15,2013-02-01 02:12:00,
2013-01-31 20:14:00,1.4,-2.1,30.14,North,350,5.0,8.0,85,0.00,,,0.00,Wunderground v.1.15,2013-02-01 02:14:00,
2013-01-31 20:16:00,1.4,-2.3,30.14,North,350,5.0,6.0,84,0.00,,,0.00,Wunderground v.1.15,2013-02-01 02:16:00,
2013-01-31 20:20:00,1.4,-2.1,30.14,North,350,5.0,7.0,85,0.00,,,0.00,Wunderground v.1.15,2013-02-01 02:20:00,
2013-01-31 20:22:00,1.4,-2.1,30.14,North,350,5.0,7.0,85,0.00,,,0.00,Wunderground v.1.15,2013-02-01 02:22:00,
2013-01-31 20:25:00,1.4,-2.1,30.14,North,350,5.0,10.0,85,0.00,,,0.00,Wunderground v.1.15,2013-02-01 02:25:00,
2013-01-31 20:26:00,1.4,-2.0,30.14,North,350,2.0,-999.0,85,-99.99,,,0.00,weatherlink.com 1.10,2013-02-01 02:26:00,
2013-01-31 20:30:00,1.3,-2.2,30.15,North,350,5.0,18.0,85,0.00,,,0.00,Wunderground v.1.15,2013-02-01 02:30:00,
2013-01-31 20:32:00,1.2,-2.3,30.15,North,350,5.0,18.0,85,0.00,,,0.00,Wunderground v.1.15,2013-02-01 02:32:00,
2013-01-31 20:35:00,1.2,-2.5,30.15,North,350,5.0,18.0,84,0.00,,,0.00,Wunderground v.1.15,2013-02-01 02:35:00,
2013-01-31 20:39:00,1.1,-2.4,30.15,North,350,5.0,18.0,85,0.00,,,0.00,Wunderground v.1.15,2013-02-01 02:39:00,
2013-01-31 20:41:00,1.1,-2.0,30.15,North,350,8.0,-999.0,85,-99.99,,,0.00,weatherlink.com 1.10,2013-02-01 02:41:00,
2013-01-31 20:43:00,1.1,-2.4,30.15,North,350,6.0,18.0,85,0.00,,,0.00,Wunderground v.1.15,2013-02-01 02:43:00,
2013-01-31 20:44:00,1.1,-2.4,30.15,North,350,6.0,18.0,85,0.00,,,0.00,Wunderground v.1.15,2013-02-01 02:44:00,
2013-01-31 20:49:00,1.0,-2.7,30.15,North,350,6.0,18.0,84,0.00,,,0.00,Wunderground v.1.15,2013-02-01 02:49:00,
2013-01-31 20:50:00,0.9,-2.8,30.16,North,350,5.0,18.0,84,0.00,,,0.00,Wunderground v.1.15,2013-02-01 02:50:00,
2013-01-31 20:54:00,0.9,-2.8,30.16,North,350,6.0,18.0,84,0.00,,,0.00,Wunderground v.1.15,2013-02-01 02:54:00,
2013-01-31 20:56:00,0.9,-3.0,30.16,North,350,5.0,-999.0,84,-99.99,,,0.00,weatherlink.com 1.10,2013-02-01 02:56:00,
2013-01-31 20:57:00,0.8,-2.9,30.16,North,350,5.0,13.0,84,0.00,,,0.00,Wunderground v.1.15,2013-02-01 02:57:00,
2013-01-31 21:02:00,0.8,-2.7,30.16,North,350,5.0,13.0,85,0.00,,,0.00,Wunderground v.1.15,2013-02-01 03:02:00,
2013-01-31 21:03:00,0.8,-2.7,30.16,North,350,5.0,13.0,85,0.00,,,0.00,Wunderground v.1.15,2013-02-01 03:03:00,
2013-01-31 21:04:00,0.7,-2.7,30.16,North,350,4.0,13.0,85,0.00,,,0.00,Wunderground v.1.15,2013-02-01 03:04:00,
2013-01-31 21:09:00,0.7,-2.7,30.16,North,350,5.0,8.0,85,0.00,,,0.00,Wunderground v.1.15,2013-02-01 03:09:00,
2013-01-31 21:11:00,0.7,-2.7,30.16,North,350,5.0,8.0,85,0.00,,,0.00,Wunderground v.1.15,2013-02-01 03:11:00,
2013-01-31 21:12:00,0.6,-3.0,30.16,North,350,7.0,-999.0,85,-99.99,,,0.00,weatherlink.com 1.10,2013-02-01 03:12:00,
2013-01-31 21:13:00,0.6,-2.8,30.16,North,350,5.0,8.0,85,0.00,,,0.00,Wunderground v.1.15,2013-02-01 03:13:00,
2013-01-31 21:17:00,0.6,-2.8,30.16,North,350,5.0,7.0,85,0.00,,,0.00,Wunderground v.1.15,2013-02-01 03:17:00,
2013-01-31 21:19:00,0.5,-2.9,30.17,North,350,5.0,7.0,85,0.00,,,0.00,Wunderground v.1.15,2013-02-01 03:19:00,
2013-01-31 21:20:00,0.5,-2.9,30.17,North,350,5.0,7.0,85,0.00,,,0.00,Wunderground v.1.15,2013-02-01 03:20:00,
2013-01-31 21:24:00,0.4,-3.0,30.17,North,350,5.0,7.0,85,0.00,,,0.00,Wunderground v.1.15,2013-02-01 03:24:00,
2013-01-31 21:27:00,0.4,-3.3,30.17,North,350,5.0,17.0,84,0.00,,,0.00,Wunderground v.1.15,2013-02-01 03:27:00,
2013-01-31 21:28:00,0.4,-3.0,30.17,North,350,3.0,-999.0,84,-99.99,,,0.00,weatherlink.com 1.10,2013-02-01 03:28:00,
2013-01-31 21:29:00,0.4,-3.0,30.17,North,350,5.0,17.0,85,0.00,,,0.00,Wunderground v.1.15,2013-02-01 03:29:00,
2013-01-31 21:32:00,0.4,-3.3,30.17,North,350,6.0,17.0,84,0.00,,,0.00,Wunderground v.1.15,2013-02-01 03:32:00,
2013-01-31 21:33:00,0.4,-3.0,30.17,North,350,6.0,17.0,85,0.00,,,0.00,Wunderground v.1.15,2013-02-01 03:33:00,
2013-01-31 21:34:00,0.3,-3.1,30.17,North,350,5.0,17.0,85,0.00,,,0.00,Wunderground v.1.15,2013-02-01 03:34:00,
2013-01-31 21:36:00,0.2,-3.2,30.17,North,350,5.0,5.0,85,0.00,,,0.00,Wunderground v.1.15,2013-02-01 03:36:00,
2013-01-31 21:40:00,0.2,-3.2,30.17,North,350,4.0,17.0,85,0.00,,,0.00,Wunderground v.1.15,2013-02-01 03:40:00,
2013-01-31 21:41:00,0.2,-3.2,30.17,North,350,4.0,17.0,85,0.00,,,0.00,Wunderground v.1.15,2013-02-01 03:41:00,
2013-01-31 21:44:00,0.1,-3.3,30.17,North,350,4.0,17.0,85,0.00,,,0.00,Wunderground v.1.15,2013-02-01 03:44:00,
2013-01-31 21:47:00,0.1,-3.3,30.17,North,350,4.0,17.0,85,0.00,,,0.00,Wunderground v.1.15,2013-02-01 03:47:00,
2013-01-31 21:48:00,0.1,-3.3,30.18,North,350,4.0,17.0,85,0.00,,,0.00,Wunderground v.1.15,2013-02-01 03:48:00,
2013-01-31 21:50:00,0.1,-3.3,30.18,North,350,4.0,17.0,85,0.00,,,0.00,Wunderground v.1.15,2013-02-01 03:50:00,
2013-01-31 21:53:00,0.2,-3.2,30.18,North,350,5.0,17.0,85,0.00,,,0.00,Wunderground v.1.15,2013-02-01 03:53:00,
2013-01-31 21:56:00,0.2,-3.2,30.18,North,350,5.0,10.0,85,0.00,,,0.00,Wunderground v.1.15,2013-02-01 03:56:00,
2013-01-31 21:57:00,0.2,-3.2,30.18,North,350,5.0,10.0,85,0.00,,,0.00,Wunderground v.1.15,2013-02-01 03:57:00,
2013-01-31 21:58:00,0.2,-3.0,30.18,North,350,12.0,-999.0,85,-99.99,,,0.00,weatherlink.com 1.10,2013-02-01 03:58:00,
2013-01-31 22:03:00,0.1,-3.3,30.18,North,350,5.0,10.0,85,0.00,,,0.00,Wunderground v.1.15,2013-02-01 04:03:00,
2013-01-31 22:06:00,0.1,-3.6,30.18,North,350,5.0,14.0,84,0.00,,,0.00,Wunderground v.1.15,2013-02-01 04:06:00,
2013-01-31 22:07:00,0.1,-3.3,30.18,North,350,5.0,14.0,85,0.00,,,0.00,Wunderground v.1.15,2013-02-01 04:07:00,
2013-01-31 22:08:00,0.1,-3.3,30.18,North,350,4.0,14.0,85,0.00,,,0.00,Wunderground v.1.15,2013-02-01 04:08:00,
2013-01-31 22:13:00,0.1,-3.3,30.18,North,350,5.0,14.0,85,0.00,,,0.00,Wunderground v.1.15,2013-02-01 04:13:00,
2013-01-31 22:14:00,0.0,-3.4,30.19,North,350,5.0,14.0,85,0.00,,,0.00,Wunderground v.1.15,2013-02-01 04:14:00,
2013-01-31 22:16:00,0.0,-3.7,30.19,North,350,5.0,5.0,84,0.00,,,0.00,Wunderground v.1.15,2013-02-01 04:16:00,
2013-01-31 22:17:00,-0.1,-3.8,30.19,North,350,5.0,7.0,84,0.00,,,0.00,Wunderground v.1.15,2013-02-01 04:17:00,
2013-01-31 22:21:00,-0.1,-3.5,30.19,North,350,5.0,9.0,85,0.00,,,0.00,Wunderground v.1.15,2013-02-01 04:21:00,
2013-01-31 22:23:00,-0.1,-3.5,30.19,North,350,4.0,9.0,85,0.00,,,0.00,Wunderground v.1.15,2013-02-01 04:23:00,
2013-01-31 22:24:00,-0.1,-3.5,30.19,North,350,4.0,9.0,85,0.00,,,0.00,Wunderground v.1.15,2013-02-01 04:24:00,
2013-01-31 22:25:00,-0.1,-3.5,30.19,North,350,4.0,9.0,85,0.00,,,0.00,Wunderground v.1.15,2013-02-01 04:25:00,
2013-01-31 22:27:00,-0.1,-4.0,30.19,North,350,6.0,-999.0,85,-99.99,,,0.00,weatherlink.com 1.10,2013-02-01 04:27:00,
2013-01-31 22:31:00,-0.2,-3.9,30.19,North,350,5.0,24.0,84,0.00,,,0.00,Wunderground v.1.15,2013-02-01 04:31:00,
2013-01-31 22:34:00,-0.3,-4.0,30.19,North,350,5.0,24.0,84,0.00,,,0.00,Wunderground v.1.15,2013-02-01 04:34:00,
2013-01-31 22:35:00,-0.3,-4.0,30.19,North,350,5.0,24.0,84,0.00,,,0.00,Wunderground v.1.15,2013-02-01 04:35:00,
2013-01-31 22:38:00,-0.3,-4.0,30.19,North,350,5.0,24.0,84,0.00,,,0.00,Wunderground v.1.15,2013-02-01 04:38:00,
2013-01-31 22:40:00,-0.4,-4.1,30.19,North,350,4.0,24.0,84,0.00,,,0.00,Wunderground v.1.15,2013-02-01 04:40:00,
2013-01-31 22:41:00,-0.4,-4.1,30.19,North,350,4.0,24.0,84,0.00,,,0.00,Wunderground v.1.15,2013-02-01 04:41:00,
2013-01-31 22:44:00,-0.5,-4.2,30.19,North,350,4.0,24.0,84,0.00,,,0.00,Wunderground v.1.15,2013-02-01 04:44:00,
2013-01-31 22:48:00,-0.4,-3.8,30.19,North,350,4.0,24.0,85,0.00,,,0.00,Wunderground v.1.15,2013-02-01 04:48:00,
2013-01-31 22:49:00,-0.4,-3.8,30.19,North,350,4.0,24.0,85,0.00,,,0.00,Wunderground v.1.15,2013-02-01 04:49:00,
2013-01-31 22:51:00,-0.5,-3.9,30.19,North,350,4.0,24.0,85,0.00,,,0.00,Wunderground v.1.15,2013-02-01 04:51:00,
2013-01-31 22:55:00,-0.5,-4.2,30.20,North,350,4.0,24.0,84,0.00,,,0.00,Wunderground v.1.15,2013-02-01 04:55:00,
2013-01-31 22:57:00,-0.4,-3.8,30.19,North,350,4.0,9.0,85,0.00,,,0.00,Wunderground v.1.15,2013-02-01 04:57:00,
2013-01-31 23:03:00,-0.6,-4.0,30.20,North,350,4.0,9.0,85,0.00,,,0.00,Wunderground v.1.15,2013-02-01 05:03:00,
2013-01-31 23:04:00,-0.7,-4.1,30.20,North,350,4.0,9.0,85,0.00,,,0.00,Wunderground v.1.15,2013-02-01 05:04:00,
2013-01-31 23:06:00,-0.7,-4.1,30.20,North,350,4.0,11.0,85,0.00,,,0.00,Wunderground v.1.15,2013-02-01 05:06:00,
2013-01-31 23:10:00,-0.8,-4.2,30.20,North,350,5.0,11.0,85,0.00,,,0.00,Wunderground v.1.15,2013-02-01 05:10:00,
2013-01-31 23:12:00,-0.8,-5.0,30.20,North,350,3.0,-999.0,84,-99.99,,,0.00,weatherlink.com 1.10,2013-02-01 05:12:00,
2013-01-31 23:15:00,-0.9,-4.6,30.20,North,350,5.0,11.0,84,0.00,,,0.00,Wunderground v.1.15,2013-02-01 05:15:00,
2013-01-31 23:17:00,-0.8,-4.2,30.20,North,350,5.0,5.0,85,0.00,,,0.00,Wunderground v.1.15,2013-02-01 05:17:00,
2013-01-31 23:19:00,-0.8,-4.2,30.20,North,350,4.0,7.0,85,0.00,,,0.00,Wunderground v.1.15,2013-02-01 05:19:00,
2013-01-31 23:21:00,-0.8,-4.2,30.20,North,350,4.0,7.0,85,0.00,,,0.00,Wunderground v.1.15,2013-02-01 05:21:00,
2013-01-31 23:22:00,-0.8,-4.2,30.20,North,350,4.0,7.0,85,0.00,,,0.00,Wunderground v.1.15,2013-02-01 05:22:00,
2013-01-31 23:24:00,-0.9,-4.3,30.20,North,350,4.0,7.0,85,0.00,,,0.00,Wunderground v.1.15,2013-02-01 05:24:00,
2013-01-31 23:27:00,-0.9,-4.3,30.21,North,350,4.0,11.0,85,0.00,,,0.00,Wunderground v.1.15,2013-02-01 05:27:00,
2013-01-31 23:30:00,-1.0,-4.7,30.21,North,350,4.0,11.0,84,0.00,,,0.00,Wunderground v.1.15,2013-02-01 05:30:00,
2013-01-31 23:36:00,-1.1,-4.8,30.21,North,350,4.0,4.0,84,0.00,,,0.00,Wunderground v.1.15,2013-02-01 05:36:00,
2013-01-31 23:39:00,-1.1,-4.8,30.21,North,350,4.0,11.0,84,0.00,,,0.00,Wunderground v.1.15,2013-02-01 05:39:00,
2013-01-31 23:41:00,-1.2,-4.9,30.21,North,350,4.0,11.0,84,0.00,,,0.00,Wunderground v.1.15,2013-02-01 05:41:00,
2013-01-31 23:42:00,-1.2,-4.9,30.21,North,350,5.0,11.0,84,0.00,,,0.00,Wunderground v.1.15,2013-02-01 05:42:00,
2013-01-31 23:43:00,-1.2,-4.9,30.21,North,350,5.0,11.0,84,0.00,,,0.00,Wunderground v.1.15,2013-02-01 05:43:00,
2013-01-31 23:48:00,-1.3,-5.0,30.22,North,350,5.0,11.0,84,0.00,,,0.00,Wunderground v.1.15,2013-02-01 05:48:00,
2013-01-31 23:49:00,-1.2,-4.9,30.22,North,350,5.0,11.0,84,0.00,,,0.00,Wunderground v.1.15,2013-02-01 05:49:00,
2013-01-31 23:50:00,-1.2,-4.6,30.22,North,350,5.0,11.0,85,0.00,,,0.00,Wunderground v.1.15,2013-02-01 05:50:00,
2013-01-31 23:51:00,-1.2,-4.9,30.22,North,350,5.0,11.0,84,0.00,,,0.00,Wunderground v.1.15,2013-02-01 05:51:00,
2013-01-31 23:54:00,-1.3,-5.0,30.22,North,350,5.0,11.0,84,0.00,,,0.00,Wunderground v.1.15,2013-02-01 05:54:00,
2013-01-31 23:56:00,-1.3,-5.0,30.22,North,350,5.0,9.0,84,0.00,,,0.00,Wunderground v.1.15,2013-02-01 05:56:00,
2013-01-31 23:59:00,-1.3,-5.0,30.22,North,350,5.0,9.0,84,0.00,,,0.00,Wunderground v.1.15,2013-02-01 05:59:00,